GFSGL_925_thetae_075.txt.gz
Theta_e
320 320 321 320 320 320 320 320 320 319 320 321 321 320 320 321 321 321 321 321 320 318 318 318 318 318 319 319 318 316 316 316 317 316 316 317 317 316 316 317 318 319 318
320 319 319 319 319 318 319 320 320 319 319 319 319 319 319 320 320 319 319 320 320 320 320 319 319 319 318 319 318 316 317 317 317 318 317 318 319 319 319 318 318 319 319
319 319 319 319 318 319 318 318 318 319 319 318 318 318 318 319 320 319 320 320 319 319 319 319 319 318 318 317 317 317 317 317 317 318 318 318 318 319 320 318 318 318 318
320 320 318 319 319 319 319 319 318 318 319 319 319 319 319 319 318 318 318 319 319 319 319 318 318 319 319 319 319 318 317 317 318 318 318 319 320 319 319 319 320 319 318
306 306 307 311 316 319 319 319 320 320 319 318 318 318 319 319 319 319 318 318 318 319 319 319 318 318 318 318 318 318 318 318 319 319 319 319 319 320 320 320 319 318 318
297 297 298 300 303 305 308 312 315 316 316 318 317 317 317 315 313 316 317 318 318 318 318 319 318 318 318 318 317 317 317 318 318 318 318 318 318 319 319 319 319 319 321
293 293 293 295 296 297 298 301 303 304 306 306 306 307 307 304 303 307 311 313 314 316 317 318 318 318 317 317 317 316 317 317 317 316 317 317 317 317 317 317 317 317 317
290 290 291 293 293 294 295 296 297 299 298 297 297 297 296 294 296 299 304 308 309 311 312 314 315 315 316 316 316 315 315 315 314 314 312 313 312 310 310 309 311 314 308
288 288 289 290 291 291 292 293 294 295 293 290 289 289 288 288 291 295 300 302 304 303 304 302 297 300 305 309 312 312 314 309 299 302 299 298 293 290 294 297 297 299 293
285 286 287 287 288 289 289 290 291 290 289 287 286 286 285 286 285 289 294 293 295 291 290 288 286 292 295 299 301 302 301 293 291 289 289 289 288 288 290 290 292 295 292
284 284 285 285 286 287 287 288 288 287 287 286 285 285 284 283 283 283 287 286 285 283 282 281 282 282 283 285 290 290 285 284 283 283 281 280 280 279 280 282 282 283 281
283 283 283 283 284 284 285 285 286 286 286 285 285 284 283 282 281 281 281 281 283 281 279 279 279 279 280 280 279 279 280 281 279 278 277 276 276 277 277 277 278 278 277
283 282 282 282 282 283 283 283 283 283 283 283 283 283 282 282 281 279 280 279 279 279 279 278 278 278 278 279 281 281 280 278 277 276 276 276 276 276 276 276 276 275 275
282 282 281 281 281 281 281 281 282 282 282 282 282 282 282 282 282 281 280 280 279 279 279 277 277 277 277 276 277 276 276 276 277 276 275 274 274 275 275 275 276 275 274
281 281 281 281 280 279 279 280 280 280 280 281 281 281 281 281 280 279 279 279 278 277 278 278 277 277 277 276 275 274 274 275 275 275 274 274 274 273 273 273 273 273 273
281 280 279 279 279 279 279 277 277 278 278 278 278 279 278 278 278 277 277 276 277 276 276 276 275 275 275 274 274 273 273 272 272 273 273 272 272 272 272 272 272 272 272
279 279 279 278 278 278 277 277 276 274 274 274 275 276 276 276 276 275 274 274 275 275 274 273 273 273 272 272 271 271 270 270 270 270 270 271 271 270 271 271 271 271 271
278 278 276 276 276 275 275 274 274 274 274 272 271 271 273 273 273 272 274 274 273 272 272 272 271 271 270 270 269 269 268 268 268 268 269 269 269 269 270 269 269 269 270
276 276 275 274 274 273 273 273 272 272 271 271 271 270 270 269 269 270 270 270 270 270 270 270 269 269 269 268 268 267 267 266 266 266 266 267 267 268 268 268 268 267 268
275 275 275 274 273 273 272 272 271 270 269 269 268 268 269 269 269 268 267 268 268 268 268 268 267 267 267 267 266 266 266 265 265 266 265 265 266 266 266 266 266 267 267
274 273 273 273 273 272 271 271 270 269 269 268 267 266 266 267 266 266 266 266 266 266 266 266 266 265 265 265 264 264 263 263 263 263 263 264 263 265 265 265 265 266 266
273 273 272 272 271 271 270 269 269 268 268 267 266 265 266 265 265 265 264 264 263 264 264 264 264 263 263 263 263 263 262 262 261 261 262 262 263 263 264 264 264 265 265
272 271 271 270 269 269 269 268 268 267 266 266 266 265 264 264 263 263 262 262 262 262 262 262 262 261 261 261 261 261 261 260 259 260 260 261 262 262 263 264 264 264 264
270 270 269 268 268 268 267 267 266 266 265 265 264 263 263 262 262 262 262 262 262 262 262 262 261 261 261 261 260 259 259 260 259 259 260 260 260 261 262 262 263 262 263
269 268 268 267 267 266 266 265 265 264 264 263 263 262 262 261 261 261 261 261 261 261 261 261 261 260 260 260 260 259 259 259 259 259 259 259 260 260 260 261 261 262 262
267 267 266 266 266 265 265 264 264 263 263 263 263 262 262 261 261 261 260 260 260 260 260 260 260 260 260 259 259 259 259 259 259 258 259 258 259 259 259 260 260 261 262

GFSGL_925_thetae_078.txt.gz
Theta_e
322 322 323 322 323 322 322 321 321 322 321 321 322 321 321 321 320 319 320 319 315 316 316 316 316 317 318 318 318 318 318 318 319 318 318 317 318 318 319 319 319 319 318
321 322 322 323 323 323 322 321 321 321 321 321 321 321 320 321 321 321 320 320 318 316 316 318 318 318 317 318 317 318 318 317 317 317 317 318 318 318 319 320 320 320 320
321 321 321 320 320 321 322 322 323 322 320 320 321 320 320 320 320 321 321 322 321 320 320 318 318 318 317 317 318 318 318 318 318 317 318 319 320 319 320 320 320 321 321
319 317 317 319 320 320 320 321 321 321 322 321 320 320 320 321 321 322 323 323 322 321 322 321 322 321 321 321 321 321 320 320 320 320 321 320 320 320 320 320 321 321 322
305 305 305 309 312 315 318 319 321 321 321 322 322 321 321 318 315 319 321 321 321 321 321 321 321 321 321 322 322 322 322 321 321 321 320 320 321 321 321 321 321 321 322
298 299 300 301 303 304 307 309 311 313 314 316 317 318 314 306 306 314 317 318 318 319 319 320 320 320 320 320 320 319 319 320 321 321 321 320 320 320 320 321 321 321 322
296 296 298 299 299 299 300 301 302 302 303 302 301 300 299 298 300 304 308 312 313 314 312 313 315 317 318 319 319 319 318 318 318 316 317 318 318 318 317 318 318 318 318
294 294 294 295 297 299 299 300 299 296 294 293 292 292 292 290 293 299 303 305 303 302 300 299 301 303 304 306 311 313 314 312 310 311 306 302 299 300 302 303 304 304 302
290 291 292 293 294 295 296 295 296 294 292 290 289 289 290 287 288 294 298 301 296 290 287 288 290 291 293 298 301 303 304 297 292 293 291 289 290 291 294 295 294 295 299
289 289 289 290 291 292 292 292 292 291 290 289 289 288 287 287 284 290 291 290 288 286 284 284 283 284 287 293 294 294 288 284 285 286 286 286 286 285 286 285 285 287 290
287 287 287 288 289 289 290 290 290 290 289 289 288 286 285 283 283 283 285 287 285 284 283 282 281 282 282 282 285 285 281 282 281 281 280 280 280 280 280 279 279 280 280
286 286 286 286 287 288 288 288 288 288 288 288 287 286 285 283 281 281 281 282 284 284 283 282 280 280 280 280 281 280 282 282 281 280 279 279 279 279 279 278 278 278 277
285 285 285 285 285 286 286 287 287 287 287 287 287 286 285 285 284 282 281 280 280 281 280 279 279 280 281 280 279 281 282 283 283 282 281 280 280 279 280 280 279 278 277
285 284 284 284 284 284 284 284 285 285 285 285 285 285 284 283 282 283 283 283 282 282 281 281 280 281 280 279 280 280 280 279 280 280 280 280 279 279 278 278 279 279 278
284 284 284 283 282 281 280 281 281 280 282 283 282 282 282 281 279 279 279 280 280 280 281 281 281 281 280 280 279 278 277 278 278 278 278 278 278 277 277 277 277 277 277
284 284 283 283 283 282 280 278 277 277 278 278 278 280 278 277 277 277 276 277 277 280 281 280 279 279 278 277 277 276 275 275 275 276 276 276 276 275 276 276 276 276 276
283 283 282 283 283 282 282 282 280 275 274 274 276 276 276 275 275 275 276 275 276 279 279 278 277 276 276 275 275 274 274 273 273 274 274 274 275 275 275 274 275 275 275
279 279 281 281 281 280 280 279 279 280 279 277 272 272 273 273 273 274 275 277 277 276 275 275 275 274 274 273 273 273 272 272 272 272 272 272 273 273 273 273 273 273 274
280 279 279 278 277 278 278 277 277 276 276 276 275 274 272 272 272 272 273 274 274 274 273 273 273 273 272 272 272 271 270 270 270 271 271 271 271 272 271 271 272 271 271
277 276 278 278 278 278 277 276 276 275 274 274 272 272 273 273 273 272 272 272 272 272 272 271 271 271 270 270 270 269 270 269 269 269 269 269 269 270 270 270 270 271 271
278 276 276 277 277 276 276 275 274 274 273 272 270 267 268 271 271 270 270 270 270 270 270 270 269 269 269 268 268 268 268 268 267 267 268 268 268 269 269 269 270 270 270
277 276 276 275 275 275 274 273 273 273 272 272 270 268 268 270 270 269 269 268 268 268 267 268 267 267 266 266 266 267 266 266 266 266 266 266 267 268 268 268 268 269 269
275 275 274 274 273 272 273 272 272 272 271 270 270 269 269 268 268 268 267 267 266 266 265 266 266 265 265 264 264 264 264 264 263 262 263 265 266 266 267 268 267 268 267
273 274 273 273 272 272 272 272 270 269 270 270 269 268 268 267 267 266 265 265 264 265 264 263 263 262 262 263 263 263 262 260 260 262 260 262 264 265 266 266 267 266 267
272 272 272 271 271 271 271 270 270 269 269 268 268 267 267 266 266 265 264 263 262 263 263 262 262 262 262 260 260 260 259 259 259 259 260 262 263 262 263 264 264 266 266
270 270 270 270 269 269 269 269 268 268 267 267 266 266 265 265 265 264 263 262 262 262 261 262 262 260 260 262 261 259 259 259 259 259 259 261 262 263 263 264 264 264 266

GFSGL_925_thetae_081.txt.gz
Theta_e
327 327 325 325 326 326 326 325 324 325 324 323 323 322 321 320 321 318 317 317 316 317 318 317 317 319 319 319 317 315 320 320 321 320 319 319 319 318 318 320 320 320 320
325 325 324 324 324 324 324 324 323 323 323 322 322 322 322 321 321 320 319 317 315 315 315 315 316 316 317 317 316 318 319 318 318 318 318 318 318 318 318 318 318 318 319
324 324 323 323 324 324 323 323 322 322 321 321 321 323 323 322 321 321 320 319 319 318 318 316 316 317 317 318 318 317 317 317 317 317 317 317 317 317 318 318 318 319 319
319 319 319 320 322 323 323 324 323 322 321 320 320 321 321 321 321 321 321 321 321 321 321 320 319 318 317 318 318 318 318 319 319 319 319 320 321 321 321 322 321 321 322
306 307 307 310 315 317 319 320 320 319 318 320 321 318 315 315 314 317 319 321 323 323 323 322 322 322 322 320 320 319 320 321 322 322 322 323 323 323 323 322 322 322 322
300 300 301 303 305 307 308 308 312 313 313 313 310 307 305 303 303 311 316 316 316 317 317 319 319 319 320 320 320 320 320 317 320 321 321 321 321 322 321 321 321 322 322
297 298 300 301 300 301 302 302 300 299 301 300 299 298 296 297 301 305 308 310 308 307 307 308 308 307 309 311 314 314 312 311 308 308 308 307 305 305 303 304 305 304 305
296 296 298 299 300 300 299 297 295 294 293 292 292 292 293 293 297 301 302 301 300 296 295 294 295 296 298 300 304 302 300 299 298 297 294 290 289 292 295 296 297 297 298
291 292 295 296 297 297 296 295 294 293 291 290 289 290 288 288 293 298 297 294 290 288 287 287 287 287 291 295 297 297 291 287 287 288 288 288 288 291 293 294 292 290 295
290 291 292 292 294 293 293 293 293 293 292 291 289 288 287 286 287 289 290 289 287 285 284 283 282 283 283 288 288 287 283 283 285 285 285 284 284 285 286 285 284 285 284
288 289 290 290 291 292 292 292 292 292 291 289 288 287 285 285 283 286 288 288 287 286 285 283 282 282 283 282 282 282 281 282 282 282 282 282 282 282 281 280 280 282 284
288 287 287 288 289 290 291 290 290 291 290 289 288 287 286 284 282 282 283 284 285 284 283 282 282 281 281 282 282 283 284 284 284 284 283 282 282 281 281 281 280 279 279
288 288 287 287 286 287 288 289 289 290 289 288 288 287 285 285 284 283 283 282 281 282 281 281 281 281 281 281 281 281 282 282 283 282 282 281 281 281 281 282 282 281 280
286 286 286 286 286 285 284 283 284 286 287 286 286 286 284 283 282 283 283 283 283 283 282 282 282 282 281 281 281 280 280 280 281 281 281 281 281 280 280 280 280 280 281
286 286 285 283 282 280 279 281 281 280 281 283 282 282 282 280 279 279 280 281 282 282 282 282 282 282 282 281 280 279 278 279 279 280 280 279 279 279 279 279 279 279 279
286 286 286 286 284 282 280 278 277 278 278 278 279 279 278 277 278 278 278 279 280 282 282 282 281 280 280 279 279 278 277 277 277 278 278 278 278 277 278 278 278 278 278
285 285 285 284 284 284 284 282 279 276 276 276 276 276 276 276 276 276 277 278 279 281 281 280 279 278 278 277 277 276 276 275 275 276 276 276 276 276 277 276 276 277 277
282 282 283 283 282 282 282 282 282 282 281 277 274 274 274 274 275 276 278 279 279 278 278 278 277 277 276 276 275 274 274 274 274 274 274 274 274 275 275 275 275 274 274
281 281 281 281 280 280 281 280 280 280 279 279 278 277 275 274 275 275 276 277 277 276 276 275 275 275 274 274 274 274 273 272 272 273 273 272 273 274 274 273 274 273 273
279 279 280 281 281 280 280 279 279 278 278 276 274 274 276 276 276 275 274 275 274 274 274 274 273 273 273 272 273 272 272 272 271 271 271 271 271 272 272 273 273 272 273
280 279 279 279 279 279 278 278 278 277 276 275 272 270 272 275 274 273 273 272 272 272 272 272 272 271 271 271 271 271 270 270 269 269 270 269 270 271 271 272 271 272 272
279 278 278 278 278 277 277 277 276 276 275 275 274 271 272 273 273 272 271 271 270 270 270 270 270 269 268 268 268 269 269 268 267 267 267 268 269 270 270 271 271 270 271
277 277 277 276 276 276 276 276 276 275 274 274 273 272 272 271 271 271 270 269 269 268 267 268 268 267 266 267 267 266 266 265 265 265 264 266 267 268 268 269 269 269 269
276 276 275 275 274 275 275 275 273 271 272 273 272 272 271 270 270 269 268 267 267 267 266 266 265 264 263 263 265 265 263 261 261 262 261 264 266 266 266 267 268 268 268
274 274 274 274 274 274 274 273 273 272 272 272 271 271 270 269 269 268 267 266 265 266 265 264 264 264 264 262 262 262 261 260 260 259 261 263 265 264 266 266 267 266 267
272 272 273 273 273 272 272 272 272 271 271 270 270 269 269 268 268 267 266 265 265 264 264 264 264 263 262 263 263 261 261 259 260 261 260 261 264 265 265 264 265 265 266

GFSGL_925_thetae_084.txt.gz
Theta_e
331 330 328 326 326 327 327 326 325 325 325 325 323 322 322 323 323 323 323 323 323 322 322 322 322 321 320 321 318 315 318 316 318 319 318 318 318 316 318 319 319 319 319
328 327 326 325 327 327 326 325 325 324 324 323 323 323 322 322 322 322 322 321 321 321 320 320 320 319 316 317 319 318 318 316 315 316 318 319 318 317 318 319 319 319 318
325 325 324 323 324 325 325 324 324 323 321 321 323 322 321 321 321 320 320 320 319 318 317 317 317 317 315 315 315 316 318 317 317 318 317 316 315 316 316 316 317 317 317
320 320 320 321 322 321 324 323 323 322 320 320 322 321 320 320 320 320 320 319 319 318 317 317 317 316 316 315 315 316 317 316 317 317 316 317 317 317 317 318 319 320 320
310 311 310 314 315 317 317 316 319 320 319 319 317 316 314 315 316 318 319 319 321 320 319 320 318 316 315 316 317 318 318 318 318 318 319 319 319 320 321 321 320 319 320
302 303 305 307 310 308 306 309 311 309 308 309 307 305 304 303 305 311 314 314 315 316 311 308 310 316 315 310 309 310 312 314 313 313 316 317 315 311 309 308 306 308 313
299 301 302 302 300 300 300 299 299 299 299 298 298 298 298 299 303 305 310 310 307 304 303 304 303 304 306 307 298 300 301 301 302 303 300 293 294 294 296 298 299 298 301
295 297 299 299 298 296 296 294 293 293 293 291 291 292 295 297 299 301 303 302 299 295 294 293 294 295 298 300 297 296 292 291 292 292 291 288 288 291 293 294 294 294 294
291 293 295 296 296 295 294 293 292 291 290 289 288 288 289 292 293 293 296 294 291 287 287 286 287 288 290 296 295 290 287 284 285 286 286 286 286 287 290 290 288 290 293
290 291 292 293 293 294 294 293 292 290 289 287 285 285 285 287 289 289 290 289 286 284 284 284 284 284 284 287 289 287 283 282 283 284 284 284 283 283 284 284 284 284 283
289 289 290 291 291 291 291 292 291 289 288 287 285 284 283 284 286 288 288 286 284 283 282 282 282 283 284 284 284 284 284 284 284 284 283 282 282 282 282 281 281 282 282
288 288 288 289 290 290 291 291 290 289 288 287 286 286 284 283 283 283 284 284 283 282 282 282 282 282 282 283 283 284 284 283 283 282 282 281 281 281 282 282 282 280 279
287 287 286 286 286 286 286 287 288 288 288 287 286 284 283 283 284 283 283 282 282 282 282 282 282 282 281 281 281 281 282 282 282 282 282 281 281 280 280 281 281 282 279
285 284 283 282 282 283 282 282 283 285 285 285 285 283 281 281 283 283 283 283 283 283 283 283 282 282 281 279 279 279 280 280 280 280 280 279 279 279 279 279 280 280 279
286 284 283 281 280 279 279 280 279 280 282 281 280 280 279 279 280 280 281 282 282 283 282 282 281 281 280 280 278 277 277 278 278 278 278 279 278 278 278 278 278 279 279
286 286 286 283 282 280 278 277 278 278 278 278 278 278 278 278 279 279 280 281 282 281 281 280 280 279 278 278 277 277 276 276 276 276 276 276 277 277 277 276 276 277 277
285 285 284 284 284 284 282 279 277 276 276 276 276 277 277 277 277 278 279 280 280 280 279 278 278 277 277 276 276 275 274 274 275 275 275 274 275 275 275 276 275 274 274
282 282 282 282 282 282 282 282 281 281 278 276 275 275 276 276 277 278 279 278 277 277 277 277 276 276 275 275 275 274 273 273 273 274 273 273 273 274 274 274 274 274 273
281 281 281 281 281 281 281 281 280 280 279 277 277 276 276 276 276 276 276 276 276 276 275 275 274 274 274 273 273 273 272 272 272 272 272 271 272 273 273 273 273 273 273
280 281 281 281 281 280 280 280 279 278 276 274 273 274 275 276 275 274 274 274 274 274 274 273 272 272 272 272 272 271 271 271 270 270 270 270 270 271 271 272 272 272 272
281 280 280 279 279 279 279 278 278 277 275 273 271 273 274 274 274 273 272 272 272 272 272 272 271 270 270 270 270 270 269 269 268 268 268 268 269 270 270 271 271 270 271
279 278 278 278 277 277 277 277 277 276 276 275 273 273 273 273 273 272 271 270 270 269 269 270 269 268 268 268 268 267 267 266 266 265 265 266 267 268 268 269 269 270 269
278 278 278 277 277 277 276 276 276 275 275 274 273 273 272 271 270 270 269 269 269 268 267 267 267 266 266 266 266 266 265 264 263 263 264 265 266 266 266 267 268 268 268
277 277 276 275 275 275 276 275 273 273 273 273 273 272 271 271 270 269 268 267 267 267 266 266 265 264 264 264 264 263 263 263 262 262 262 264 264 265 265 266 266 267 266
275 275 275 274 274 274 274 274 273 273 272 272 272 271 270 270 269 269 267 266 265 265 265 265 265 264 264 263 263 262 262 262 262 262 262 263 264 265 265 265 265 266 266
273 273 273 273 273 273 273 273 272 272 271 271 270 270 269 269 269 268 267 266 265 264 264 265 264 264 263 263 263 263 262 261 260 261 262 262 262 263 263 263 263 264 265

GFSGL_925_thetae_087.txt.gz
Theta_e
333 330 328 327 326 328 327 327 327 325 324 323 322 323 323 323 323 323 322 321 323 322 322 320 322 322 322 322 321 320 316 316 316 316 316 316 316 318 318 319 320 320 321
330 328 327 326 325 326 327 327 326 325 325 324 323 322 322 322 323 323 322 322 321 321 320 323 322 322 321 319 316 315 316 318 315 315 315 315 314 316 318 318 318 316 315
326 325 325 325 326 327 326 325 325 325 324 324 323 322 322 322 322 322 323 322 322 322 322 322 322 321 321 319 315 315 315 317 317 316 315 315 315 316 314 313 313 313 316
320 321 321 321 323 324 324 324 323 322 322 322 322 322 321 320 320 320 321 321 321 321 321 321 320 318 317 317 316 315 315 314 316 317 316 316 315 314 314 315 316 317 317
310 315 313 314 318 320 321 321 321 320 318 315 315 314 315 317 317 318 319 319 319 318 316 316 314 314 316 316 315 315 315 315 316 316 316 316 316 317 316 313 315 315 314
303 304 306 311 308 309 310 311 313 311 309 309 307 307 309 310 313 315 315 317 314 312 308 305 304 305 305 310 310 311 313 314 313 313 313 310 306 301 301 302 302 305 307
299 300 299 299 300 300 299 298 298 298 299 298 299 301 300 301 306 310 312 309 305 302 301 299 299 299 299 300 300 301 301 302 302 302 297 292 291 291 294 296 297 298 298
294 296 297 296 295 295 295 293 292 292 292 292 291 293 295 294 297 300 304 301 297 294 294 295 294 294 297 297 296 295 292 292 292 293 291 287 287 289 291 291 291 291 290
291 292 294 294 294 293 292 290 289 289 288 288 289 291 291 291 291 292 294 291 288 286 287 288 290 292 291 294 293 290 286 285 284 284 284 284 284 286 288 289 288 290 288
290 290 291 292 292 291 290 289 287 287 286 286 286 287 289 288 289 289 289 287 285 284 284 284 285 287 289 289 289 286 283 284 284 283 283 283 283 283 283 284 285 284 284
289 290 290 290 290 290 289 289 287 286 285 284 284 284 285 287 286 286 285 285 284 283 283 283 284 284 284 284 285 285 284 283 282 282 281 281 282 282 282 281 281 280 281
287 287 287 288 288 289 289 288 287 286 286 285 284 284 283 283 284 283 284 283 282 282 282 282 282 283 283 283 283 283 283 282 281 281 280 280 280 280 281 281 281 279 279
285 284 284 284 285 286 286 286 287 286 285 284 283 282 282 283 283 283 283 282 282 282 282 282 281 281 281 281 281 281 281 281 281 280 280 280 279 279 280 280 280 280 278
283 282 282 282 282 282 282 283 283 283 283 282 281 280 281 282 283 283 283 283 283 283 282 282 280 279 278 279 279 279 279 279 279 279 278 278 278 278 278 279 279 279 278
283 281 280 280 279 279 279 279 280 281 281 279 279 279 279 280 281 282 283 283 282 281 281 280 279 278 277 276 276 276 277 277 277 277 277 277 277 277 276 277 277 277 276
285 284 282 280 279 278 278 278 279 279 279 279 278 278 279 280 280 281 282 282 281 280 279 278 277 276 276 275 275 275 275 275 275 275 275 275 275 275 275 274 274 275 275
283 283 283 283 281 280 278 276 276 276 277 277 278 279 279 279 279 280 279 279 279 278 277 276 276 275 274 274 274 273 273 274 273 273 273 274 274 274 274 273 273 273 273
282 282 282 282 282 282 281 279 278 276 275 276 277 277 278 278 279 279 277 277 276 276 275 274 274 274 273 273 273 272 272 272 272 272 272 272 272 272 272 272 272 272 272
281 281 281 281 281 280 280 280 278 277 275 275 276 276 276 276 275 275 275 275 274 274 274 273 273 273 273 272 272 272 271 271 271 270 270 270 271 271 271 271 271 271 271
281 281 281 280 280 280 279 278 276 275 273 273 274 275 274 274 273 273 273 273 273 272 272 272 271 271 271 270 270 270 270 269 269 269 269 269 269 270 270 270 270 270 270
279 279 279 279 279 278 278 277 276 274 272 273 273 274 274 273 272 272 271 271 271 271 270 270 270 269 269 269 268 268 268 267 267 266 267 267 268 268 268 269 269 269 269
278 278 277 277 277 277 277 276 276 274 274 273 273 273 272 272 271 270 270 269 269 269 269 268 268 268 267 267 267 267 266 266 265 265 265 266 266 266 267 267 267 268 268
277 277 277 276 277 276 276 275 275 274 274 273 272 272 271 270 270 269 269 268 267 267 267 267 266 266 266 266 265 265 265 264 263 264 264 264 265 265 265 266 266 266 266
276 276 275 275 275 275 274 273 273 273 273 272 272 271 270 270 269 268 268 267 267 266 265 265 265 265 264 264 264 263 263 263 263 263 263 264 264 264 265 265 265 266 266
274 274 274 274 274 274 273 273 273 272 272 271 271 270 270 269 269 268 267 266 265 265 265 265 264 264 264 263 263 263 263 263 262 263 263 263 263 263 263 264 264 264 265
272 272 272 272 272 272 272 272 271 271 271 270 270 270 269 269 268 267 266 266 265 265 264 264 264 264 263 263 262 262 262 262 262 262 262 262 262 262 262 262 263 263 263

GFSGL_925_thetae_093.txt.gz
Theta_e
328 328 327 327 327 328 327 326 327 327 326 326 325 323 324 323 323 322 323 323 324 324 323 322 321 321 322 321 319 320 320 320 317 319 318 318 318 317 317 317 318 318 318
329 328 327 327 326 326 326 327 327 326 325 324 323 321 321 322 323 323 323 323 323 323 323 322 322 321 321 321 320 320 320 320 319 316 318 317 317 316 316 317 317 317 317
325 326 326 326 326 326 326 326 325 324 324 323 323 322 322 322 323 323 322 322 323 323 322 321 321 321 321 321 320 319 320 318 318 317 316 316 316 316 316 315 315 316 316
309 320 323 326 326 326 326 325 324 324 323 322 322 322 321 321 321 321 322 322 322 322 322 322 322 322 320 320 320 319 317 316 315 315 316 316 316 315 315 315 314 313 311
301 305 309 309 318 323 324 324 323 322 321 320 319 318 317 317 318 320 321 321 320 321 320 320 321 321 321 321 319 318 316 316 315 315 315 315 315 314 314 313 312 309 302
296 297 298 301 301 308 311 311 314 312 313 314 313 312 310 311 312 318 319 319 318 318 316 314 316 318 319 319 319 318 317 316 316 315 315 315 308 308 307 306 306 306 301
295 294 293 293 293 294 297 299 300 301 303 304 303 304 302 301 304 311 316 315 311 308 307 307 306 304 308 309 312 313 313 314 313 313 311 303 299 299 298 298 299 299 293
291 292 292 292 291 291 291 291 291 293 294 293 295 296 295 292 295 302 305 305 302 300 300 299 301 299 300 302 302 301 298 299 300 303 301 295 295 295 296 296 295 293 289
288 289 290 290 291 290 288 288 288 288 288 288 289 290 291 290 292 294 296 295 293 292 293 293 294 294 293 296 298 292 288 285 285 288 288 288 290 291 292 292 291 291 286
286 287 288 288 288 288 288 288 288 287 286 286 286 286 286 287 289 292 292 289 288 287 288 289 290 290 290 290 291 289 285 284 284 284 284 284 284 284 286 288 289 290 285
286 287 287 287 287 286 286 286 286 286 286 285 285 285 285 286 286 287 289 289 286 286 285 285 285 287 288 288 288 286 283 283 283 282 282 282 282 281 281 282 283 285 282
285 285 285 286 286 286 285 285 284 284 284 284 284 284 284 284 284 285 286 286 285 284 283 284 284 283 283 283 283 282 282 282 282 281 281 280 280 278 278 278 278 278 277
283 283 283 284 284 284 284 284 283 283 283 283 283 283 283 283 283 283 283 284 283 283 281 280 282 281 282 281 281 281 281 280 279 279 278 278 278 279 278 277 277 277 276
282 281 281 281 282 282 282 282 282 282 281 282 282 283 283 283 283 282 281 281 281 281 282 282 281 281 280 280 279 279 278 278 278 277 277 277 278 278 278 277 277 276 276
281 281 280 280 280 280 280 280 280 281 281 281 282 282 283 283 283 282 282 281 280 280 280 280 279 279 278 278 277 277 277 277 276 276 276 276 275 275 275 276 275 275 274
281 280 279 279 279 279 280 280 280 280 281 281 282 282 283 283 282 281 281 280 279 279 278 276 275 275 274 274 274 274 274 275 274 274 274 274 274 274 273 273 274 274 273
283 282 280 278 278 278 278 278 278 279 280 280 281 281 281 281 280 279 278 277 277 277 275 274 273 273 273 273 273 272 272 272 273 273 273 272 272 272 272 272 272 272 271
281 282 281 279 277 276 277 277 277 277 276 277 278 279 279 279 278 277 277 277 275 274 274 273 272 272 272 271 271 271 271 271 271 271 271 271 271 271 271 271 271 271 270
281 280 280 280 279 277 276 276 276 276 276 276 276 276 275 274 275 276 276 275 273 272 272 272 272 272 271 271 270 270 270 269 269 269 270 270 270 270 270 270 270 269 269
280 280 280 279 279 278 277 276 275 275 275 274 274 273 274 275 274 273 273 273 272 271 271 271 270 270 270 270 269 269 268 268 268 268 268 268 268 269 269 269 269 269 268
278 278 278 279 278 277 275 274 273 274 274 273 272 272 272 272 271 271 271 271 270 270 270 269 269 269 269 268 268 268 267 266 266 266 266 267 267 267 267 267 267 267 267
277 277 277 277 277 276 275 273 273 273 273 273 272 271 271 271 270 269 269 269 269 268 268 268 268 267 267 267 266 266 265 265 264 264 265 265 266 266 266 266 266 266 266
276 276 276 276 276 275 275 274 273 273 272 272 271 271 270 270 269 268 268 267 267 266 266 266 266 265 265 265 265 265 264 264 264 264 264 264 265 265 265 265 265 265 265
275 275 275 275 274 274 274 274 273 272 272 271 271 270 269 269 268 268 267 266 266 266 265 265 264 264 264 263 263 263 263 263 263 263 263 263 264 264 264 264 264 264 264
273 273 274 274 274 273 273 273 273 272 271 271 270 270 269 269 268 267 267 266 265 265 265 264 264 264 263 263 263 263 263 262 262 262 262 262 262 263 263 263 263 263 263
271 271 271 271 272 272 272 272 271 271 271 270 270 269 269 268 268 267 266 266 265 265 264 264 264 263 263 263 262 262 262 262 261 261 261 262 262 262 262 262 262 262 262

GFSGL_925_thetae_096.txt.gz
Theta_e
328 327 328 327 327 326 326 324 325 325 325 327 327 326 326 326 325 325 324 324 324 325 325 324 321 320 320 320 319 318 317 317 319 318 318 319 319 319 319 319 319 319 319
319 327 326 326 327 327 325 325 325 325 325 326 326 326 323 322 323 322 322 322 322 323 323 324 322 320 320 319 319 319 317 317 319 318 317 318 319 319 319 319 318 317 317
309 321 325 326 326 325 325 326 325 325 325 324 324 321 320 321 322 322 323 323 323 323 323 323 321 320 320 319 319 318 318 319 320 319 317 317 316 316 315 315 315 315 315
299 304 308 313 325 325 324 324 325 324 323 322 321 319 319 321 321 321 322 322 322 322 322 322 321 320 320 319 318 319 319 318 317 318 317 316 317 316 316 315 312 310 308
296 296 296 300 309 313 321 323 323 322 320 318 317 316 317 319 320 320 320 320 321 321 321 320 321 321 321 320 319 319 320 318 316 316 315 315 315 315 315 314 312 307 301
294 294 295 297 298 298 299 313 315 313 312 312 311 311 312 312 314 318 319 319 318 318 317 315 316 319 320 319 319 318 318 316 316 315 315 315 314 313 312 310 306 300 298
291 291 292 294 293 294 293 295 299 300 303 303 302 302 301 302 307 312 315 314 310 307 308 308 311 306 312 316 317 317 317 316 316 315 314 311 306 307 307 304 304 302 293
289 289 290 291 292 295 292 289 290 292 292 292 292 293 294 293 298 305 306 303 300 298 299 299 301 301 304 306 306 306 301 302 305 306 306 299 301 300 299 301 300 296 291
287 287 288 289 290 290 291 290 289 288 287 287 288 289 289 290 293 297 300 298 294 292 292 294 294 294 294 298 300 292 287 285 286 291 290 292 292 294 295 296 294 292 286
284 285 286 286 287 287 287 287 287 287 287 287 286 287 287 287 289 292 293 291 289 288 288 288 289 290 291 292 293 289 284 282 284 287 285 286 287 288 290 290 291 290 284
284 284 285 285 285 285 285 285 285 285 285 285 285 285 285 286 286 289 290 289 286 285 285 285 285 287 287 289 290 288 285 284 284 285 283 282 282 282 283 286 286 286 282
284 283 283 284 284 284 284 284 284 284 284 284 284 283 283 284 284 285 286 286 285 284 283 283 283 282 281 282 283 282 283 283 282 281 280 279 278 278 278 278 278 278 277
282 282 282 283 283 283 283 282 282 283 283 283 283 283 283 282 281 282 283 284 283 282 281 280 281 282 281 280 280 280 281 281 280 279 277 277 277 277 277 277 277 277 276
281 280 280 281 281 282 282 282 282 282 282 282 283 283 283 282 282 281 282 281 281 281 281 280 280 280 280 279 279 279 278 278 278 277 276 277 277 278 277 277 277 276 275
281 280 280 279 280 281 281 281 281 282 283 282 283 283 283 282 281 282 282 281 281 280 280 280 279 279 278 277 277 277 277 277 276 276 276 276 276 276 275 275 275 275 274
280 279 279 279 279 279 279 279 280 281 282 283 283 282 282 281 281 280 280 280 280 280 279 276 275 275 274 274 274 274 274 274 274 274 274 274 274 274 274 274 274 273 272
281 281 279 278 279 278 279 278 278 279 280 280 280 280 280 280 279 278 277 278 277 278 275 274 273 273 273 273 272 272 272 272 273 273 273 273 273 272 272 272 272 272 271
280 280 279 277 277 277 277 277 278 277 276 277 277 277 277 277 277 276 277 277 275 274 273 272 272 272 272 271 271 271 271 271 271 271 271 271 271 271 271 271 270 270 270
280 279 280 279 277 276 276 276 276 276 275 274 275 275 274 273 274 275 275 274 273 272 272 272 271 271 271 270 270 270 270 269 269 270 270 270 270 270 270 269 269 269 268
279 279 279 279 278 277 276 275 275 274 273 273 273 273 273 274 273 273 272 272 272 271 271 271 270 270 270 269 269 268 268 268 268 268 268 268 269 269 269 268 268 268 267
277 278 278 278 277 276 274 273 274 274 273 272 271 271 272 272 271 270 270 270 270 270 270 269 269 269 268 268 268 267 267 266 266 266 267 267 267 267 267 267 267 267 266
276 276 276 276 276 275 274 274 274 273 272 272 271 270 270 270 269 269 269 269 268 268 268 268 267 267 267 266 266 266 265 265 264 265 265 266 266 266 266 266 266 266 266
275 276 275 275 275 274 274 273 273 273 272 272 271 270 270 269 268 268 267 267 267 266 266 266 266 265 265 265 264 264 264 264 264 264 264 264 265 265 265 265 265 265 265
274 274 274 274 274 274 274 273 272 272 272 271 270 270 269 268 268 267 266 266 266 265 265 264 264 264 264 263 263 263 263 263 263 263 263 263 264 264 264 264 263 263 263
271 272 272 272 272 272 272 273 272 272 271 271 270 270 269 268 268 267 266 266 265 265 264 264 264 263 263 263 263 262 262 262 262 261 262 262 262 263 263 263 262 262 262
270 270 270 270 270 270 271 271 271 271 270 270 269 269 269 268 267 267 266 266 265 265 264 264 264 263 263 263 262 262 262 261 261 261 261 261 261 261 262 262 261 262 262

GFSGL_925_thetae_099.txt.gz
Theta_e
305 325 327 326 326 326 327 327 327 326 322 325 326 326 325 325 325 326 326 326 325 325 325 325 324 324 323 321 320 320 319 318 318 318 319 319 319 319 319 319 318 318 319
301 311 325 325 325 325 326 325 325 323 325 324 322 322 324 325 326 326 326 325 325 324 324 324 324 323 322 321 320 319 319 318 318 317 317 318 319 318 319 319 319 317 318
298 301 307 315 322 324 324 323 324 324 324 322 322 323 325 325 324 324 322 322 322 322 321 323 323 322 320 320 320 319 318 318 317 318 317 317 318 318 318 317 318 317 315
296 297 298 300 306 314 324 323 323 324 323 322 323 323 322 321 321 321 321 322 322 322 322 322 322 322 321 320 319 318 318 317 317 319 318 316 318 316 317 313 309 309 307
293 294 295 295 299 302 312 318 321 323 323 322 320 319 318 319 319 319 320 321 321 321 320 321 321 321 320 320 319 318 318 317 317 318 317 316 316 315 315 313 307 303 300
290 291 293 293 295 297 296 307 300 312 314 315 314 314 313 313 315 318 319 318 317 315 316 314 317 320 320 319 319 318 317 317 318 317 317 316 316 315 315 314 306 298 297
289 289 290 292 292 293 295 293 295 292 302 301 300 302 302 304 305 312 316 315 311 307 305 306 307 308 309 315 317 317 318 317 317 317 316 315 314 315 314 311 307 303 295
286 287 287 288 290 291 294 294 292 290 289 291 292 293 295 295 298 301 307 305 302 300 299 300 300 301 302 302 311 309 305 307 309 314 315 310 309 309 309 308 304 298 292
285 285 286 286 286 288 290 291 291 290 287 287 288 289 290 290 293 294 297 297 294 292 293 295 295 295 295 300 301 298 293 291 290 296 296 298 297 298 301 302 296 293 287
283 284 284 285 285 285 286 286 288 288 286 286 286 286 287 288 290 291 291 290 288 288 287 287 289 291 292 295 294 290 285 284 288 289 290 291 293 293 293 297 295 293 287
282 282 283 284 284 284 285 285 285 285 285 284 284 283 284 285 285 287 289 288 286 285 284 284 284 286 288 288 289 287 283 284 284 285 285 285 287 288 289 290 291 291 288
281 282 282 282 282 283 284 284 284 285 284 284 283 282 282 282 283 283 284 284 284 283 282 282 282 282 283 283 282 281 281 281 281 280 278 278 278 277 278 280 280 281 283
281 281 282 282 282 282 283 283 284 284 284 284 284 284 283 282 281 282 283 282 281 280 279 279 279 279 281 281 283 282 281 279 278 277 277 277 276 276 276 276 276 277 277
282 282 282 282 281 282 283 283 284 284 284 285 285 284 283 283 282 282 281 281 281 281 281 280 280 279 279 279 279 279 280 280 278 277 277 277 277 277 277 278 277 277 276
281 282 282 281 281 281 281 282 283 283 283 284 284 284 283 282 281 282 282 281 280 279 279 279 279 278 277 277 277 277 277 277 277 277 277 277 277 276 276 276 276 276 276
282 281 280 281 281 280 281 281 280 281 281 281 281 281 281 280 280 279 279 280 281 281 279 278 277 277 276 276 275 275 274 274 275 275 275 275 275 275 275 275 275 275 274
280 280 279 279 279 280 279 280 280 278 278 278 279 279 279 279 278 278 277 277 277 277 277 276 276 276 275 274 274 274 273 272 273 273 273 274 274 274 274 274 274 274 273
279 279 278 277 277 278 278 278 278 278 277 276 274 275 276 276 276 276 275 276 275 274 275 274 274 274 273 272 272 271 271 271 271 271 272 272 273 273 273 272 272 273 272
278 278 278 277 276 276 276 276 276 276 275 275 275 274 274 274 274 275 275 274 274 273 273 272 272 271 271 270 269 269 269 270 270 270 270 270 271 272 271 271 270 270 271
277 278 278 277 276 276 275 276 275 275 274 273 273 273 273 274 273 272 272 272 272 272 271 271 270 270 269 269 268 268 268 268 268 268 268 269 269 270 270 270 270 270 270
277 277 277 276 275 275 275 275 274 274 273 272 271 271 272 272 271 271 270 270 270 270 270 269 269 268 268 267 267 267 267 266 266 267 267 267 267 268 268 268 268 268 268
275 276 276 276 275 275 274 274 274 273 273 272 271 270 270 270 269 269 268 268 267 267 267 267 267 267 266 266 266 266 265 265 265 265 266 266 266 266 267 267 267 267 267
274 274 274 274 274 274 274 273 273 273 272 271 271 270 269 269 268 268 267 266 266 266 266 266 266 266 266 265 265 264 264 264 264 265 265 265 265 266 266 266 266 266 266
271 272 272 272 272 272 272 272 272 272 271 271 270 270 269 268 267 267 266 266 265 265 265 264 264 264 264 264 263 263 263 263 263 263 264 264 264 264 265 265 265 264 264
270 270 270 270 270 270 270 271 271 271 270 270 269 269 268 268 267 267 266 266 265 265 264 264 264 263 263 263 263 263 263 262 262 262 263 263 263 263 263 263 263 263 263
269 269 269 269 269 269 269 269 269 269 269 269 269 268 268 268 267 267 266 266 265 265 264 264 264 263 263 263 262 262 262 262 261 261 262 262 262 262 262 262 262 263 262

GFSGL_925_thetae_105.txt.gz
Theta_e
294 295 298 300 303 313 330 331 332 333 333 332 332 331 330 328 323 324 325 327 330 331 330 329 329 328 327 327 327 326 325 325 324 324 324 324 322 322 320 318 318 315 320
292 293 295 297 299 304 314 325 331 332 332 331 330 330 330 328 328 323 323 324 328 330 329 327 327 326 327 327 326 325 325 325 325 324 323 322 321 321 320 319 319 320 319
291 292 293 294 297 298 302 311 327 329 331 330 330 329 330 329 328 326 324 319 327 328 328 327 326 326 326 326 326 325 326 326 326 323 320 321 320 320 320 320 319 317 316
290 290 291 292 294 296 297 301 305 321 328 329 329 329 327 328 329 328 328 328 327 327 326 326 326 326 325 325 324 325 325 324 323 322 320 320 320 320 319 311 306 307 304
288 289 289 290 291 293 294 295 302 304 315 319 325 325 326 326 327 326 325 325 326 326 325 325 323 323 324 324 324 324 323 322 321 320 319 319 320 317 313 309 304 300 297
288 288 288 288 289 290 291 292 297 295 298 300 306 307 313 315 320 324 324 323 323 323 320 320 319 319 320 321 322 321 322 322 320 319 318 319 319 316 312 306 300 297 295
288 287 287 287 288 288 289 289 291 291 295 293 292 294 295 303 312 319 320 318 316 313 311 309 309 309 310 313 312 313 318 320 320 319 318 318 318 317 312 304 303 302 297
287 287 287 287 287 287 287 286 287 288 289 290 289 289 290 291 297 309 314 309 304 301 300 300 300 299 302 303 304 305 307 310 315 317 318 316 317 318 314 309 305 299 294
286 286 287 287 287 287 287 286 285 284 285 285 287 288 288 288 290 293 301 298 293 291 291 292 293 293 294 297 301 298 295 295 296 303 308 311 315 314 312 310 299 296 292
286 286 286 287 287 288 287 287 286 285 284 283 283 284 284 286 287 288 290 290 288 287 287 287 287 289 291 294 296 294 289 288 292 293 294 297 301 303 304 306 303 299 288
286 286 286 286 287 287 288 288 288 287 286 285 284 282 282 283 283 284 286 286 285 284 284 284 284 284 285 289 291 290 285 287 287 288 288 289 290 292 294 295 297 296 292
286 286 285 285 286 286 286 287 288 288 287 287 286 285 284 282 282 282 282 283 282 282 282 282 282 282 282 282 282 281 283 285 284 282 281 280 280 281 282 286 289 291 291
287 287 286 285 284 285 284 284 285 287 286 286 286 285 284 284 284 283 282 281 281 280 280 280 280 281 281 281 281 281 282 281 280 280 280 279 279 279 280 281 282 284 285
287 287 287 286 285 283 283 283 282 282 284 284 283 284 283 282 282 283 283 283 283 283 283 283 282 282 281 281 281 281 280 280 280 279 279 279 280 280 279 279 278 279 280
285 285 286 286 286 285 282 281 281 280 280 281 282 280 281 280 280 280 281 282 283 283 284 284 284 283 283 282 282 282 282 282 281 280 279 279 279 279 279 279 279 279 278
284 284 284 284 285 284 284 283 280 280 278 279 279 279 279 278 279 279 280 281 282 283 284 284 283 283 283 282 281 281 281 281 281 281 282 282 281 281 281 280 280 280 279
282 283 283 283 283 283 283 283 283 281 281 279 277 277 277 278 278 278 279 280 281 282 282 282 281 281 281 280 281 280 280 280 280 280 280 280 280 280 280 279 279 278 278
282 282 282 282 282 282 282 282 282 282 282 281 279 278 277 277 277 278 279 280 279 279 279 279 279 278 278 278 278 279 279 279 279 279 280 279 279 279 279 279 279 278 277
281 280 282 282 281 281 282 282 281 281 280 280 279 278 279 278 278 278 279 279 278 278 277 277 277 277 277 277 276 276 277 277 278 278 278 278 278 278 277 277 276 277 277
281 280 280 281 281 281 281 281 281 280 280 279 277 275 276 279 278 278 277 277 278 277 277 276 276 275 275 275 276 276 276 276 276 277 277 277 277 277 277 276 276 276 276
280 280 279 280 280 280 280 280 279 279 279 278 277 274 274 277 277 276 276 275 275 275 275 275 275 274 274 274 274 274 274 274 274 274 275 275 275 276 276 275 275 274 274
278 278 278 278 278 278 278 278 278 278 277 277 277 276 275 275 275 275 274 273 273 273 273 273 273 272 272 272 272 272 272 272 273 273 272 273 273 274 274 274 274 273 273
276 277 277 277 277 276 277 277 277 276 276 276 276 275 275 274 273 273 272 271 271 271 270 271 271 270 270 269 270 270 270 270 270 271 272 272 273 273 273 273 273 273 273
275 275 275 275 275 275 275 275 276 276 275 275 275 275 274 273 273 272 271 270 270 269 269 268 268 267 267 268 268 267 266 266 267 267 269 271 270 271 272 271 271 270 270
274 274 274 274 274 274 274 274 274 274 274 274 275 274 274 273 273 272 271 270 268 269 268 267 267 266 265 264 264 264 263 264 265 265 267 268 269 269 269 270 270 269 269
274 273 273 273 273 273 272 272 272 272 272 272 272 272 272 272 272 272 271 269 269 268 267 268 267 265 265 265 264 263 263 263 263 265 266 267 267 268 268 268 267 269 268

GFSGL_925_thetae_108.txt.gz
Theta_e
293 294 294 294 295 298 300 303 307 320 329 332 333 333 332 332 332 332 331 331 331 331 331 330 330 330 329 328 328 328 327 326 324 325 324 324 323 324 324 323 322 321 320
291 292 293 292 293 296 297 299 302 307 326 330 332 332 332 331 330 330 331 330 329 328 326 329 327 330 328 328 327 327 326 325 325 323 324 324 324 323 322 323 321 320 320
290 290 291 291 291 293 294 295 298 305 316 325 328 330 330 329 329 329 328 327 325 321 321 322 328 328 328 328 327 327 326 325 325 324 323 324 323 323 322 321 320 320 319
289 289 289 289 290 290 292 293 294 299 304 311 320 328 328 329 329 326 324 324 322 322 325 326 327 327 326 326 326 325 325 325 325 325 322 322 322 322 321 318 312 314 315
289 289 289 289 289 288 289 290 291 293 297 299 301 314 316 323 322 327 327 323 322 320 325 327 326 326 326 325 326 325 324 324 324 324 323 320 320 320 314 311 305 302 300
288 288 288 288 288 288 287 287 288 289 291 293 294 296 296 300 312 325 327 327 325 322 323 322 320 320 321 321 320 322 322 322 322 322 322 321 320 320 312 307 300 298 296
288 288 288 288 288 288 287 286 285 285 287 288 290 292 291 293 298 307 324 323 322 315 311 310 311 311 314 314 315 315 315 316 318 320 321 320 319 319 311 305 304 302 297
287 287 288 288 288 288 288 286 285 284 284 284 285 287 288 289 292 292 296 307 306 301 300 300 301 302 304 307 306 306 305 305 307 311 318 318 318 318 316 310 305 300 296
287 287 287 287 287 288 288 288 287 285 284 283 283 283 284 286 290 291 289 290 289 289 290 291 293 295 296 299 300 299 296 295 295 295 305 313 316 315 311 308 297 296 292
286 286 286 287 286 287 288 287 288 287 286 285 284 283 283 283 284 286 289 286 285 285 285 285 285 287 291 293 296 294 290 288 291 294 297 301 305 305 305 306 305 301 291
287 286 285 285 285 285 285 286 287 287 286 285 284 284 284 283 283 282 283 283 283 283 283 283 283 284 284 285 289 289 285 287 289 290 290 291 293 294 298 299 300 300 296
287 287 285 284 284 284 283 283 284 285 285 285 284 283 283 283 284 283 282 282 282 281 282 282 282 283 282 282 282 282 284 286 285 284 283 281 282 284 286 289 293 295 295
287 287 287 285 283 283 282 281 282 282 283 282 282 282 282 281 282 283 284 284 283 283 283 282 282 282 282 282 281 283 283 282 281 281 280 280 280 281 282 284 285 286 287
285 286 286 286 284 282 282 281 280 280 280 281 280 280 280 280 281 282 283 284 284 284 284 283 283 283 282 282 282 281 281 280 280 280 280 280 280 281 281 282 282 282 283
285 284 285 285 285 284 281 281 280 279 279 279 279 279 279 279 280 281 282 283 284 284 284 284 283 283 282 282 282 282 282 282 281 280 280 280 280 280 280 280 281 281 280
283 284 283 283 283 283 283 282 280 280 280 279 278 278 278 279 280 280 281 281 282 282 282 282 282 281 281 281 281 280 281 281 282 282 282 282 281 281 280 280 279 279 279
282 283 282 282 282 283 283 282 282 281 281 279 279 279 279 279 279 280 280 280 279 279 279 279 279 279 279 279 279 279 280 280 280 280 280 280 280 280 280 279 279 279 279
280 281 282 282 282 282 282 282 282 282 281 280 277 277 278 279 279 279 279 279 278 278 278 277 277 277 278 277 278 278 279 279 279 280 280 280 280 280 280 279 278 278 278
281 280 281 282 281 281 281 281 281 281 280 279 276 275 277 279 278 277 277 278 278 277 277 276 276 276 276 276 276 276 277 277 278 278 278 278 278 277 277 277 277 278 277
280 280 280 280 280 280 280 280 280 280 279 279 276 274 276 277 277 276 275 275 275 276 276 276 275 275 275 275 275 276 276 276 276 277 277 277 277 277 276 277 277 276 276
279 279 278 279 279 279 278 279 279 279 278 277 276 275 275 275 275 275 274 273 273 273 273 273 273 273 273 273 273 274 274 274 274 275 275 275 276 276 276 275 275 275 275
277 277 277 277 277 277 277 277 278 277 277 277 276 276 275 274 274 273 272 272 271 271 271 271 271 271 270 270 271 272 272 272 273 272 273 274 274 274 274 274 274 274 274
276 276 276 276 275 275 276 275 276 276 276 276 276 275 275 274 273 272 271 270 270 270 269 269 269 269 269 269 269 269 269 269 270 271 272 273 273 273 273 273 273 273 272
275 275 275 275 274 274 274 274 274 274 274 274 274 275 274 274 273 273 271 270 269 269 268 268 267 266 267 267 267 267 267 267 267 269 270 271 272 272 272 271 271 270 270
274 274 274 274 274 274 273 273 273 273 272 273 273 272 273 273 272 272 272 270 269 268 268 268 267 266 266 265 265 264 264 264 266 267 268 269 270 270 270 270 270 270 269
274 274 274 274 274 273 273 273 272 272 272 272 271 271 271 271 270 271 270 271 269 268 268 268 267 266 266 265 265 264 263 263 264 266 267 267 268 268 268 268 269 269 268

GFSGL_925_thetae_111.txt.gz
Theta_e
291 291 291 291 291 292 293 294 296 297 300 306 318 326 328 329 328 328 330 329 328 327 327 325 324 324 327 328 329 328 328 326 324 322 323 323 324 325 325 325 324 324 325
290 290 290 290 290 291 291 292 293 295 297 301 310 320 329 328 326 328 329 328 327 328 327 326 325 326 328 328 328 328 327 327 326 322 323 322 323 325 324 324 325 324 324
290 289 289 289 289 289 289 289 291 292 294 296 300 309 320 327 327 329 329 330 329 329 329 328 328 327 327 327 327 326 326 326 326 324 323 324 323 323 324 323 322 322 321
289 289 289 289 289 288 288 287 288 289 290 292 296 300 303 312 322 321 328 329 328 327 325 326 323 321 321 327 326 326 326 325 325 324 323 323 323 323 322 321 317 318 318
288 288 288 288 289 288 287 286 286 287 287 289 291 293 295 296 296 305 321 326 326 324 323 323 322 321 325 326 326 325 325 324 324 324 323 322 323 322 321 316 311 311 308
288 288 288 288 288 288 287 286 285 285 285 285 287 288 289 290 296 308 316 323 321 320 321 321 318 323 325 325 325 325 325 324 324 324 323 321 321 321 318 313 305 300 299
287 287 287 287 288 288 287 287 286 285 284 284 284 285 286 288 292 301 295 300 310 313 315 312 310 310 313 315 319 320 320 320 321 321 321 321 320 320 318 312 310 307 302
286 286 287 286 286 287 287 287 287 286 285 284 284 284 285 286 289 294 292 289 288 291 294 299 300 300 304 308 310 308 308 308 309 310 310 314 318 320 320 317 309 302 298
286 285 286 285 285 285 285 286 286 285 284 284 284 284 284 284 285 288 292 290 286 285 285 288 291 294 294 299 303 301 298 297 297 300 303 305 312 317 316 311 300 297 292
286 284 284 284 283 283 283 284 284 284 284 283 283 282 283 285 284 283 285 285 284 284 284 284 285 287 291 293 295 294 290 288 292 293 296 299 303 308 306 307 305 301 291
287 285 284 283 282 281 281 282 282 282 282 282 282 282 282 283 284 284 283 283 283 283 283 283 284 284 284 285 290 289 286 286 287 289 290 292 294 296 298 300 300 300 296
286 286 285 283 282 281 280 280 280 280 281 280 280 280 281 282 283 284 284 284 284 283 283 283 283 283 283 283 283 283 286 287 285 285 283 283 284 287 288 292 294 297 298
284 285 285 284 283 281 280 280 279 279 279 280 279 279 279 280 281 283 284 284 284 283 283 283 283 283 282 282 282 283 283 283 282 281 280 280 281 282 285 286 289 290 291
283 283 283 283 283 282 280 279 279 278 278 278 278 279 279 280 281 281 283 283 284 283 283 282 282 282 282 282 282 282 281 280 280 280 280 281 282 283 283 283 283 284 285
283 282 282 282 282 282 281 280 279 280 279 279 279 279 280 280 281 281 281 281 281 281 281 281 280 281 281 281 281 282 282 282 281 281 281 281 281 281 281 282 282 282 282
282 282 281 282 282 282 282 282 280 280 279 278 279 279 279 279 280 280 279 279 279 279 278 278 279 279 279 279 280 280 280 281 281 281 281 281 281 281 280 281 281 280 280
280 281 282 281 282 282 282 281 281 281 278 276 277 278 279 279 278 279 279 278 277 277 277 277 277 277 277 277 278 279 279 280 280 280 280 280 280 280 280 279 280 280 280
279 280 281 281 280 280 280 280 280 279 276 275 275 277 277 278 276 276 276 276 276 276 276 275 275 276 276 276 276 277 278 279 279 279 280 280 280 279 279 278 279 279 279
279 279 279 279 279 278 279 279 278 278 277 275 275 275 275 275 274 273 273 273 273 274 275 274 274 274 274 275 276 276 276 277 278 278 277 278 278 278 278 278 278 278 277
278 278 278 277 277 277 277 278 277 277 277 276 275 275 274 273 273 272 272 271 271 271 272 272 272 272 272 273 273 274 274 275 275 276 277 277 276 276 277 277 277 276 275
276 276 276 276 275 276 275 276 276 276 276 276 276 275 274 273 272 271 271 270 270 269 270 270 270 270 270 271 272 272 272 273 273 273 274 275 276 275 275 275 275 275 274
275 275 275 274 274 274 274 274 274 274 274 274 275 275 274 273 273 272 271 270 270 269 269 268 268 268 269 268 269 270 270 270 271 272 273 273 274 274 274 274 274 274 274
274 274 274 274 273 273 273 273 273 272 272 273 273 272 273 273 273 272 271 270 269 269 268 268 267 267 267 267 267 267 268 268 268 270 271 272 273 273 274 273 273 273 273
274 274 274 274 273 273 273 272 272 272 271 272 271 271 272 271 271 271 271 270 269 268 268 268 267 266 266 266 266 266 265 266 267 269 270 270 272 272 272 272 272 271 271
274 273 273 273 273 273 272 273 272 272 271 271 271 271 271 270 270 270 269 270 269 268 268 268 267 266 266 265 265 265 264 264 266 267 268 269 270 270 270 270 270 270 270
272 272 272 271 271 270 270 270 270 270 270 272 271 271 270 270 269 269 269 269 269 268 268 268 268 266 266 266 265 265 264 264 265 266 267 267 268 268 269 269 269 268 269

GFSGL_925_thetae_114.txt.gz
Theta_e
290 290 290 290 290 290 290 290 290 291 293 294 296 299 304 309 321 321 320 324 327 326 325 325 327 327 327 327 327 327 326 324 322 321 323 323 323 322 325 324 323 322 322
289 289 289 289 289 289 289 288 288 289 290 291 293 295 299 305 318 326 324 323 326 326 326 323 323 326 326 327 327 327 326 324 325 319 321 322 322 323 323 323 323 323 322
289 289 289 289 289 288 287 287 286 287 287 289 290 292 293 296 302 314 325 326 324 326 326 325 323 321 322 324 325 326 326 325 325 325 321 321 321 322 324 324 323 323 323
288 288 288 288 288 288 287 286 286 286 286 286 287 289 290 292 294 301 315 322 324 326 326 326 325 322 322 323 324 321 320 323 325 324 322 323 322 322 322 321 320 322 322
287 288 287 287 288 287 287 287 286 285 285 285 285 286 287 290 290 295 306 315 318 318 327 326 325 325 321 324 323 322 324 324 324 324 323 323 323 322 322 320 318 317 317
286 287 286 286 286 287 287 286 285 285 285 285 285 285 286 287 289 291 296 309 310 304 318 321 318 322 321 321 323 324 324 324 324 323 323 322 323 323 321 317 314 305 304
285 285 286 285 285 285 285 285 285 284 283 283 283 285 286 286 287 289 291 293 293 292 292 297 304 306 312 318 324 324 324 324 323 323 322 322 321 322 321 317 313 311 310
284 284 284 283 283 284 284 284 284 284 283 283 283 283 285 286 285 285 288 290 292 290 288 288 291 295 298 300 305 314 313 312 317 319 320 318 319 320 319 320 316 308 303
284 283 283 282 281 281 282 282 282 282 282 282 282 282 283 285 285 284 284 285 286 287 287 286 287 289 292 293 297 297 300 301 301 307 307 310 311 315 317 314 308 301 292
285 283 283 282 281 280 279 280 280 280 280 280 280 281 282 283 285 285 284 284 284 284 284 285 286 285 285 290 291 290 288 289 294 295 298 299 301 304 307 309 311 305 292
286 284 283 282 281 280 279 278 279 279 279 279 279 280 281 282 283 285 284 284 283 283 283 284 283 284 284 284 285 285 284 285 289 291 292 293 293 295 298 301 303 304 298
283 284 283 282 281 280 279 279 279 279 278 278 279 280 281 281 282 283 284 283 283 283 283 283 283 283 283 282 283 283 284 283 284 286 286 284 286 287 290 294 296 300 299
282 282 282 282 281 280 279 279 279 279 279 279 279 279 280 281 280 281 281 282 282 282 282 282 282 282 282 282 282 282 283 282 281 281 281 281 282 284 287 288 290 293 295
281 281 282 282 282 281 280 279 278 278 279 279 279 279 279 280 280 279 279 279 280 280 280 280 280 281 281 281 282 282 282 282 281 281 281 282 283 284 284 285 286 286 287
282 281 281 281 281 281 280 280 278 277 279 279 280 279 279 279 280 279 278 278 278 278 278 278 278 278 279 279 280 280 281 281 281 281 281 281 281 281 282 283 284 284 283
281 281 280 280 280 280 280 280 279 277 277 278 278 279 277 277 277 278 278 277 277 276 276 276 276 276 276 277 277 278 279 280 280 281 281 281 280 280 281 281 281 281 281
279 279 278 278 279 278 278 278 276 276 276 275 276 276 276 275 275 275 275 275 275 275 274 274 274 275 275 276 276 276 277 279 279 280 280 280 280 280 280 280 281 281 280
279 278 278 278 278 278 277 277 277 276 275 275 274 274 274 273 273 273 272 273 272 272 272 272 272 272 273 273 274 275 276 277 277 278 278 279 279 279 279 279 279 279 279
277 276 276 276 276 276 276 276 276 276 276 274 274 273 272 272 272 271 270 270 269 270 271 270 270 270 271 272 272 273 274 274 275 276 276 277 277 278 278 278 278 279 279
276 275 275 275 274 274 275 275 275 274 274 274 274 273 273 272 271 270 270 269 269 268 269 269 269 269 269 270 271 271 272 272 273 274 275 275 276 276 277 277 278 277 277
275 274 274 273 273 273 273 273 273 273 273 273 273 273 273 273 272 270 270 269 269 268 268 267 267 267 268 268 268 269 269 270 271 272 273 274 275 275 275 275 275 274 274
273 273 273 273 273 273 272 272 272 272 272 271 271 272 272 272 272 271 270 269 268 268 268 267 267 266 266 267 267 267 267 268 269 270 271 273 274 274 274 274 274 274 274
273 273 273 273 273 273 273 272 272 272 271 271 270 271 271 270 270 270 270 269 268 268 268 267 267 266 265 265 265 264 264 265 266 268 269 271 272 273 273 273 273 273 274
273 272 272 272 271 271 271 270 270 270 271 271 271 271 270 270 270 269 269 269 269 268 268 268 267 266 266 265 265 265 264 264 265 267 268 270 271 272 272 272 272 272 272
271 271 271 270 269 269 269 269 268 267 267 267 268 270 270 270 269 269 269 269 268 268 268 268 267 267 266 266 265 265 264 264 265 266 267 268 269 270 270 270 270 270 270
270 270 269 268 268 267 267 266 265 265 265 265 265 265 266 266 267 269 269 269 268 268 267 267 267 267 266 266 265 265 264 263 264 264 265 266 268 268 269 269 269 269 269

GFSGL_925_thetae_117.txt.gz
Theta_e
289 289 289 289 289 289 288 287 287 288 288 289 290 292 293 295 297 299 304 315 318 319 324 325 325 325 325 326 326 325 325 325 324 322 322 323 323 323 323 322 324 324 323
289 289 289 289 288 288 287 287 286 286 287 287 288 289 290 291 293 294 297 306 318 321 323 324 324 324 324 324 325 325 325 324 325 323 320 322 323 324 323 321 320 322 323
288 288 288 288 288 288 287 287 286 286 286 286 287 287 288 289 290 291 293 300 308 320 323 324 324 324 324 325 326 325 324 324 323 323 320 320 321 321 322 323 322 323 323
287 287 286 286 287 287 286 285 285 284 285 285 286 287 287 288 288 289 291 298 304 312 320 324 324 324 323 323 325 325 324 324 323 324 322 321 321 321 322 321 320 322 322
286 286 285 285 285 285 285 285 284 284 284 284 284 286 286 287 286 287 289 291 294 299 308 313 316 320 324 323 323 324 323 323 323 324 324 322 322 321 321 322 320 320 320
285 285 284 284 284 283 284 283 284 283 283 283 283 284 285 286 286 286 287 288 289 290 292 298 300 303 314 321 323 323 323 320 319 320 321 322 323 322 321 320 316 310 309
283 283 282 282 282 282 282 282 281 282 282 282 282 282 284 286 286 285 285 286 286 287 288 291 294 293 295 309 319 321 322 322 321 321 322 322 322 322 321 319 317 315 315
283 283 282 280 280 280 280 280 280 280 280 280 281 281 282 284 285 285 285 284 284 285 285 286 289 291 293 296 299 306 304 304 310 319 322 321 321 322 321 319 319 314 309
283 282 282 280 279 279 279 279 279 279 279 280 280 281 281 282 284 284 284 284 284 284 284 284 285 286 288 294 293 293 294 291 292 296 303 314 317 319 318 318 314 306 294
283 282 281 281 279 279 279 279 279 279 279 279 280 280 280 281 282 283 283 283 283 283 283 283 283 284 284 286 289 289 287 287 291 292 293 299 306 310 310 311 312 307 295
283 281 281 280 280 279 279 279 279 279 279 279 279 280 280 279 280 282 282 281 281 282 282 282 283 283 283 283 283 285 283 286 288 289 288 289 293 297 299 301 304 306 302
282 282 281 280 279 279 278 278 278 279 279 279 279 279 279 279 279 279 280 280 280 280 280 280 281 281 282 282 282 282 283 284 285 287 284 282 283 286 290 292 296 300 301
281 281 281 281 280 279 278 277 278 279 279 279 278 278 278 278 279 278 278 278 278 278 278 279 279 280 280 280 281 281 282 282 282 282 281 282 282 283 286 288 290 292 296
281 281 281 281 280 280 278 277 277 278 278 279 277 276 276 276 278 278 277 277 276 277 277 277 277 277 278 278 279 279 280 280 281 281 281 281 283 283 284 285 286 287 288
280 280 279 279 279 279 278 277 276 276 277 277 277 275 275 275 276 277 276 276 276 275 275 275 275 275 276 276 277 277 278 279 279 280 280 280 281 281 281 283 283 284 283
279 278 278 278 277 277 277 276 276 276 276 275 276 275 274 274 274 274 274 274 274 273 272 272 272 273 274 274 275 275 276 276 277 278 279 279 280 280 280 281 281 281 282
277 277 277 277 276 276 276 275 275 275 274 274 274 274 273 273 272 272 271 271 272 271 270 270 270 270 271 272 272 273 273 274 276 276 277 277 278 279 280 280 280 280 280
276 276 276 276 276 275 275 275 274 274 274 273 273 272 272 272 272 271 270 269 268 268 268 268 268 268 268 269 269 269 270 272 273 274 275 276 277 278 278 279 279 279 279
275 274 274 274 274 274 274 273 273 273 273 272 272 272 272 271 271 270 269 268 267 267 267 267 267 267 267 267 268 269 269 270 271 272 273 274 275 276 278 278 278 278 278
274 273 273 273 273 272 272 272 272 272 272 272 272 271 272 271 270 269 269 268 268 267 267 266 266 266 266 266 266 266 267 268 269 270 271 273 273 274 275 276 276 277 276
273 273 273 272 272 272 272 271 271 271 271 271 271 271 271 270 270 270 269 268 268 267 267 266 266 266 265 265 265 264 265 266 267 268 270 271 273 273 274 274 274 274 275
273 273 273 273 272 272 272 271 271 271 271 271 270 270 270 270 269 270 269 269 268 268 267 267 266 266 265 265 265 264 264 264 265 267 268 270 271 273 273 273 273 274 274
273 272 272 271 271 270 270 270 269 269 268 269 270 270 270 270 269 269 269 269 268 268 268 267 267 266 266 265 265 264 264 264 264 265 267 268 270 271 272 272 273 273 273
271 271 270 269 269 269 268 268 267 266 266 266 266 266 267 268 269 269 269 269 268 268 268 267 267 267 266 266 265 265 264 263 264 265 266 267 269 270 271 271 271 271 272
270 270 269 268 267 267 266 265 265 265 264 264 264 263 264 264 265 266 267 268 268 268 267 267 267 266 266 266 266 265 264 263 263 264 265 266 267 268 269 269 269 270 270
269 268 267 266 266 265 264 264 263 262 262 262 262 262 262 262 262 262 263 263 264 265 266 266 266 266 266 266 266 265 264 263 263 263 263 264 265 267 268 268 268 268 269

GFSGL_925_thetae_120.txt.gz
Theta_e
289 289 289 288 288 288 288 287 287 287 287 287 288 289 290 290 291 291 293 295 297 303 313 317 321 323 324 323 324 324 325 324 324 324 323 323 324 324 323 324 324 325 324
288 287 287 287 287 287 286 285 285 285 286 286 287 288 288 288 289 289 291 292 295 299 305 314 319 323 323 323 323 323 324 325 324 324 321 322 323 323 323 322 323 323 323
287 286 286 286 286 286 285 284 284 284 285 285 286 287 288 288 288 288 290 291 293 296 299 306 319 322 322 322 323 323 324 324 323 323 322 321 322 322 322 322 321 322 322
286 285 285 285 284 284 284 284 283 283 283 283 284 286 287 287 287 287 288 289 289 290 292 294 297 301 304 315 323 323 324 324 323 323 323 321 320 320 321 321 320 321 321
284 283 283 283 283 282 282 282 281 281 281 281 283 284 285 286 286 286 286 286 287 287 288 289 291 292 298 304 309 323 324 325 324 323 323 321 320 320 321 321 320 320 321
283 282 281 281 281 281 281 281 281 280 280 280 281 282 284 285 285 285 285 285 285 285 286 286 287 289 292 298 303 317 321 323 323 323 323 322 322 321 321 321 317 312 312
283 282 280 280 279 279 280 280 280 279 279 280 280 281 282 283 284 285 284 284 284 283 284 284 285 285 286 291 295 297 307 307 310 314 321 322 322 322 321 321 316 319 319
282 281 280 279 279 279 279 279 279 279 279 279 279 279 280 281 283 283 283 283 283 283 283 283 284 285 285 287 291 292 292 296 297 298 303 309 318 321 322 321 318 316 313
281 281 280 279 279 279 279 279 279 278 278 278 279 279 279 279 282 282 281 281 281 282 282 282 283 283 284 284 285 287 288 291 292 293 293 294 300 312 317 320 314 308 295
281 280 280 279 278 278 278 278 279 278 278 278 278 278 279 279 280 280 280 279 279 280 280 280 281 282 283 283 283 283 284 283 285 291 294 295 294 295 300 308 314 312 297
281 280 279 279 278 277 278 278 278 278 277 277 276 276 277 278 278 279 279 278 277 278 278 279 279 281 281 282 282 282 282 282 283 284 286 288 291 293 291 294 299 305 306
281 281 280 279 278 277 277 277 277 278 277 276 275 275 275 276 277 277 278 277 277 276 277 277 278 279 279 280 280 280 280 281 281 282 282 282 282 283 288 288 290 295 299
280 280 280 280 278 277 276 276 276 277 276 275 274 274 274 274 275 276 276 276 275 274 275 275 276 276 276 276 278 278 279 279 280 280 281 281 281 282 285 287 288 290 292
280 279 279 279 277 277 276 276 276 276 276 275 273 273 273 273 274 274 274 274 273 272 273 272 272 273 273 274 275 275 276 277 278 279 279 280 281 281 282 282 284 287 288
279 278 278 277 277 276 275 276 275 275 275 275 274 273 273 273 273 273 273 273 272 270 270 270 270 270 271 271 272 273 273 274 275 276 277 278 279 280 281 281 282 282 282
277 277 277 276 276 275 275 274 275 275 274 274 274 274 273 273 272 272 271 271 270 269 268 268 268 268 269 269 269 270 270 271 272 273 274 276 277 279 279 280 281 281 281
276 276 275 275 274 274 273 273 273 273 273 273 273 273 273 272 272 271 270 269 269 268 267 266 266 266 267 267 267 267 268 268 270 271 272 273 274 277 278 279 279 280 280
275 274 274 274 274 273 272 272 272 271 271 271 271 271 271 271 271 270 269 268 267 266 266 265 265 265 265 265 264 264 265 267 268 269 270 271 272 273 277 277 278 278 278
273 273 273 272 272 272 271 271 271 271 270 270 270 270 270 270 270 269 268 268 267 266 266 265 265 264 264 264 263 264 264 265 266 267 268 269 271 272 273 274 276 277 277
272 272 272 272 271 271 271 271 271 271 270 270 270 270 270 269 269 269 269 268 268 267 267 266 266 265 265 264 264 264 263 264 265 266 267 268 270 271 271 273 274 275 276
273 273 272 272 272 272 271 270 270 270 269 270 270 270 270 269 269 269 269 269 268 267 267 267 266 266 265 265 264 264 263 263 264 264 266 267 268 269 271 272 273 273 274
273 272 271 271 270 270 269 269 268 268 267 267 267 268 269 269 269 269 268 268 268 268 267 267 267 266 266 265 265 264 263 263 263 264 265 266 267 268 270 271 272 272 273
271 271 270 269 269 268 268 267 266 266 265 265 265 265 265 265 265 266 267 267 268 267 267 267 267 266 266 266 265 265 264 263 263 263 263 265 266 267 269 269 270 270 271
271 270 269 268 267 266 266 265 265 264 264 263 264 263 263 263 263 263 263 264 265 266 266 266 266 266 266 266 265 265 264 264 263 263 263 264 265 266 267 268 269 269 270
269 268 267 266 266 265 264 263 263 262 262 262 262 261 261 261 261 261 261 261 262 263 263 264 264 265 265 266 265 265 264 264 263 263 263 263 264 265 266 267 268 268 269
268 267 266 265 264 263 262 262 261 261 260 260 260 260 259 259 259 259 259 259 260 260 261 261 262 262 263 264 264 265 264 264 263 263 262 263 263 264 265 266 267 267 267

GFSGL_925_thetae_123.txt.gz
Theta_e
288 288 288 287 287 287 286 286 286 286 286 287 288 289 289 289 289 290 291 294 294 297 299 302 306 312 318 320 322 323 324 324 325 325 326 326 326 327 326 325 325 324 324
288 287 287 287 287 286 286 285 285 285 285 285 286 287 287 288 288 289 291 291 292 293 295 296 299 299 310 320 322 323 323 323 324 324 324 325 326 325 325 324 323 323 323
286 286 286 286 285 285 285 285 284 284 284 284 285 285 287 287 287 288 288 289 289 290 290 292 293 293 293 297 305 318 323 322 322 323 324 324 324 324 324 323 322 323 323
284 284 284 284 284 284 284 283 283 283 283 283 283 284 285 285 286 286 287 287 288 287 287 288 289 288 289 290 295 300 308 322 323 323 324 322 321 322 322 323 321 322 321
284 283 282 282 282 282 282 282 282 282 282 282 282 282 284 284 285 285 286 286 286 286 286 286 286 287 287 290 292 293 296 302 322 323 323 323 322 322 322 323 322 321 320
283 282 281 281 281 280 280 281 280 280 281 281 281 281 282 283 284 283 284 285 285 285 285 284 285 285 286 288 290 291 292 290 292 318 323 323 323 322 322 321 321 317 316
282 281 281 280 280 280 280 280 279 279 279 280 280 280 281 281 282 282 282 283 283 283 283 283 284 284 284 285 287 288 288 291 289 289 294 311 311 322 323 321 321 319 319
282 281 280 280 279 279 279 278 278 279 278 278 278 279 279 280 281 280 281 281 281 281 281 282 283 283 283 283 284 284 285 285 287 288 289 291 292 298 303 320 320 319 316
281 280 280 279 278 278 278 278 278 278 278 277 277 277 278 278 279 279 279 280 280 280 280 280 281 282 282 282 282 283 283 283 285 287 287 287 290 293 299 309 319 312 298
281 280 280 279 278 277 277 278 278 277 277 277 276 276 276 277 278 278 278 278 278 278 279 278 279 280 281 281 280 281 282 282 282 283 284 285 287 290 293 293 292 302 305
281 280 279 279 278 277 277 277 278 276 275 275 275 275 275 275 276 277 276 276 276 277 276 276 277 278 278 279 279 279 279 280 281 282 282 282 283 284 286 287 290 291 291
280 280 279 278 277 277 277 277 277 276 275 275 275 275 274 274 275 275 275 274 273 274 274 274 275 275 275 276 276 277 277 277 279 280 281 281 282 282 282 285 286 291 292
280 279 279 278 277 277 276 277 276 276 275 275 275 274 274 274 273 273 273 273 272 271 272 271 272 272 272 273 273 274 274 274 276 277 278 280 281 281 282 283 285 287 290
279 279 279 278 277 276 276 276 276 276 276 275 274 275 274 273 273 272 272 272 270 270 270 270 270 270 270 270 271 271 272 272 273 275 276 277 278 281 281 281 282 283 284
279 278 278 277 276 276 275 276 275 275 275 275 274 273 273 273 272 272 271 271 270 268 269 269 268 269 269 269 269 269 270 270 271 272 274 275 276 279 280 280 281 282 282
278 277 277 276 276 275 275 274 273 274 274 273 273 273 273 272 271 271 270 270 269 268 268 268 268 267 267 267 267 267 268 268 269 270 272 273 274 276 278 279 280 281 282
276 276 275 275 274 274 273 273 273 272 271 272 272 272 272 271 271 270 269 269 268 268 268 267 267 267 267 266 266 266 266 266 268 269 270 270 271 273 276 277 279 279 280
274 274 273 273 273 272 272 272 271 271 271 271 271 270 271 271 270 269 268 269 269 268 268 267 267 267 266 266 265 265 266 266 266 267 268 269 270 272 274 275 276 278 279
273 272 272 272 272 272 272 272 272 271 271 271 271 270 270 270 270 269 269 268 269 268 268 268 267 266 266 266 265 265 265 265 265 266 267 267 268 271 272 273 274 276 278
272 272 272 272 272 272 272 271 271 271 270 270 270 268 268 270 270 269 269 268 268 268 268 267 267 266 266 266 265 265 265 265 265 265 266 267 267 270 271 272 273 274 275
273 273 272 272 271 271 270 269 269 269 268 268 268 266 266 268 268 267 267 266 266 267 266 267 267 266 266 265 265 265 264 264 264 264 264 265 266 269 270 271 272 273 274
272 272 271 270 269 268 268 267 267 267 266 266 266 266 264 266 265 265 265 264 264 264 263 264 265 265 265 264 263 264 264 264 263 263 263 264 266 267 268 270 271 271 272
271 270 269 268 267 266 266 265 265 265 264 264 264 264 263 263 263 262 262 262 262 262 262 262 262 262 262 262 263 263 263 263 263 262 262 263 264 265 267 268 269 270 270
270 269 268 267 266 265 264 263 263 262 262 261 262 262 261 261 260 260 259 259 259 259 259 260 260 260 260 260 261 262 262 262 263 262 263 263 264 264 265 266 267 268 269
268 267 266 265 264 263 262 262 261 260 260 259 259 259 259 259 258 258 257 257 258 258 258 258 258 258 259 260 259 261 261 263 263 263 263 262 263 263 263 265 265 267 268
267 266 265 264 262 261 261 260 260 260 259 258 257 257 257 257 256 256 256 256 256 256 256 257 257 258 258 258 258 261 262 262 263 263 263 262 262 263 263 263 264 266 267

GFSGL_925_thetae_126.txt.gz
Theta_e
290 290 289 289 289 288 288 288 288 288 288 288 288 289 289 289 289 290 291 291 292 292 292 295 298 296 297 301 310 318 322 323 327 326 325 325 326 328 328 329 330 329 328
289 289 289 288 288 288 288 287 287 287 287 287 287 288 288 289 289 289 289 289 290 289 290 291 291 291 292 293 296 301 308 322 323 324 323 324 325 326 327 329 330 328 328
288 288 288 288 288 287 287 287 286 287 287 286 286 287 287 288 288 288 288 288 288 288 288 288 288 288 289 290 292 296 299 303 309 323 323 323 323 324 325 327 327 328 325
287 287 287 286 286 286 286 286 286 286 286 286 286 286 287 286 286 287 288 288 288 287 287 287 287 287 288 288 291 292 294 296 299 306 320 324 323 323 325 326 325 325 324
287 286 285 285 284 284 284 284 284 285 284 284 285 286 286 284 283 284 287 287 287 286 286 286 286 286 286 286 287 289 288 290 294 297 303 312 323 323 323 323 323 323 322
285 285 284 284 284 283 284 284 283 283 283 283 283 284 284 283 281 282 285 285 285 284 285 285 285 284 284 286 285 285 285 286 287 289 293 294 296 296 307 322 322 323 322
284 284 283 283 282 282 282 282 282 282 281 281 281 282 281 281 280 280 283 283 283 283 283 282 283 283 283 285 286 285 284 284 284 286 287 287 288 288 289 293 312 323 323
284 282 282 282 281 281 281 281 281 281 280 280 279 280 280 279 279 279 281 282 282 281 281 280 281 281 281 282 284 284 284 284 284 284 284 284 284 285 286 288 295 301 320
283 282 281 280 280 280 280 280 280 280 280 279 278 278 278 278 278 277 280 281 281 281 280 279 278 279 280 280 281 282 282 282 283 284 284 284 284 285 284 288 290 294 306
282 282 281 280 279 279 280 280 279 279 279 279 278 278 277 277 276 276 276 278 280 280 279 279 276 277 277 278 279 279 279 280 281 282 283 283 283 283 284 284 285 289 294
282 281 280 280 279 279 279 279 279 278 278 278 278 278 277 276 276 275 275 275 277 277 277 276 275 275 275 276 276 276 276 279 280 280 281 281 282 283 283 283 284 285 287
282 281 279 279 279 279 279 279 279 279 278 279 278 278 277 277 275 275 274 273 273 275 274 274 274 273 274 274 274 275 275 277 278 279 280 279 279 281 282 283 283 285 285
281 280 279 279 279 279 279 279 279 279 278 278 278 278 277 276 275 274 274 273 272 273 273 272 272 273 273 273 273 273 274 274 276 277 277 278 278 279 281 282 283 284 284
281 281 280 279 279 279 279 278 278 277 278 278 277 277 276 275 274 273 273 273 273 272 273 273 272 272 272 272 272 272 272 272 274 275 275 276 276 278 279 281 282 283 285
281 280 280 279 278 278 276 276 277 275 275 276 276 275 274 274 272 271 271 271 271 271 273 273 272 272 272 272 271 271 271 271 272 273 274 274 275 276 277 279 281 282 283
280 280 279 279 278 277 277 276 273 273 273 273 273 273 274 272 271 271 271 271 271 271 272 272 272 271 271 271 271 271 271 270 270 271 272 273 273 275 276 277 278 280 283
279 278 277 277 277 276 276 276 276 274 272 272 272 272 272 272 271 271 271 272 271 272 272 272 271 271 271 271 270 270 270 270 270 270 271 272 272 273 275 276 277 278 279
276 276 277 276 276 276 275 275 275 275 275 275 273 272 271 271 271 271 271 272 273 272 272 271 271 271 270 270 270 269 269 269 269 269 270 270 271 273 274 275 276 276 277
276 276 276 275 275 275 275 275 275 275 275 274 273 272 271 272 272 271 271 271 272 271 271 271 270 270 270 269 269 269 269 268 268 268 269 269 269 271 272 273 274 275 276
274 274 275 275 275 275 274 274 274 273 273 273 272 269 269 272 271 271 270 269 270 270 269 269 269 269 269 269 268 268 268 268 268 268 268 268 268 270 271 272 273 274 275
276 274 273 274 274 274 273 272 272 272 271 271 271 267 267 270 269 269 268 268 268 268 267 267 268 268 267 267 267 267 267 267 267 267 267 267 267 269 269 270 271 272 274
275 274 274 273 272 271 271 271 270 270 269 269 269 268 266 268 267 267 267 266 266 265 265 265 266 265 265 265 265 266 266 267 266 266 266 266 267 268 267 269 270 271 272
274 273 272 271 270 269 269 269 268 268 268 268 267 267 266 266 265 265 264 263 263 263 263 262 263 263 262 262 263 264 264 265 264 265 265 265 266 266 267 267 268 269 270
272 272 271 270 269 269 268 268 267 265 265 266 266 265 264 264 264 263 262 261 260 260 260 260 260 260 259 259 260 262 261 261 262 263 263 265 266 265 266 266 267 268 269
271 270 269 269 268 267 267 266 266 265 265 264 264 264 263 263 262 261 261 260 258 258 259 258 258 258 258 257 259 258 257 258 260 261 263 264 265 265 265 265 266 267 268
269 269 268 268 267 266 266 265 265 264 263 263 263 262 261 261 260 259 259 258 257 257 258 258 258 257 257 258 258 257 257 258 259 260 262 263 264 264 264 264 265 266 267

GFSGL_925_thetae_129.txt.gz
Theta_e
292 292 292 291 291 291 290 289 289 289 289 289 289 290 290 290 291 290 290 290 290 290 289 290 290 290 291 292 293 295 299 304 315 320 323 325 325 326 327 328 328 329 331
292 292 292 291 291 291 290 289 289 289 288 288 289 289 289 289 289 290 290 289 289 289 288 288 288 288 289 289 290 294 296 298 303 306 316 323 324 325 326 326 327 328 329
293 293 292 291 290 290 289 289 289 288 288 288 289 289 288 287 287 290 290 290 289 289 288 288 287 287 287 287 289 290 291 293 296 300 305 310 319 323 324 325 325 326 327
291 291 290 289 289 288 288 288 288 287 287 288 288 288 286 285 285 287 289 288 288 288 288 288 287 286 287 287 287 287 287 289 291 294 300 303 303 308 313 320 321 325 327
291 290 289 288 287 287 287 287 287 286 286 286 286 286 284 282 282 284 287 287 286 286 286 286 285 284 285 287 286 285 285 286 288 290 292 292 293 292 294 293 295 300 317
288 288 287 287 286 285 285 285 285 285 284 284 284 284 282 281 280 282 285 285 284 283 283 283 284 283 283 285 286 285 284 285 285 287 288 287 288 287 288 288 292 295 305
287 286 286 285 284 284 283 284 283 283 282 282 282 283 281 279 279 281 283 284 283 282 281 281 281 280 280 283 285 285 285 284 284 285 286 285 285 285 285 286 288 290 293
286 285 284 284 283 283 283 282 282 282 281 281 280 280 280 278 278 279 282 283 282 282 281 278 279 278 278 279 282 282 282 283 283 284 284 284 284 284 284 285 287 287 291
284 283 282 282 282 282 282 281 281 282 281 281 280 279 279 278 277 277 280 282 281 281 280 278 276 276 277 277 278 279 279 281 282 283 283 283 283 284 284 285 285 286 288
284 283 282 281 281 281 281 281 281 281 281 281 281 279 279 277 277 276 276 278 280 279 279 278 276 276 276 276 276 277 278 279 280 281 282 282 282 282 283 284 285 286 286
283 282 282 282 281 282 281 281 281 281 281 281 281 280 278 278 276 276 275 275 277 278 277 276 275 275 275 275 275 275 276 278 279 280 280 280 280 281 281 282 283 284 285
282 281 281 281 281 281 281 282 281 281 281 281 281 280 279 277 276 275 275 275 275 276 276 275 275 275 275 275 275 275 275 276 277 278 278 279 279 279 280 280 282 283 284
281 281 281 281 281 281 281 281 281 281 281 280 280 279 278 276 275 275 275 274 274 275 275 275 275 275 274 274 274 274 274 274 275 276 277 277 277 277 279 279 280 281 284
284 283 281 281 281 281 281 279 278 278 279 279 279 277 277 275 274 273 273 274 274 274 275 275 275 275 274 274 274 274 273 273 273 274 275 275 276 276 278 278 279 280 281
283 282 281 281 281 279 276 277 277 275 275 276 276 276 275 274 273 273 273 273 273 274 275 275 275 274 274 274 274 273 273 272 272 273 274 274 274 275 276 277 278 279 279
283 282 281 281 280 280 280 277 274 274 273 273 273 273 274 273 273 273 273 274 273 274 275 275 274 274 274 274 273 273 273 272 271 272 272 272 273 273 275 276 277 277 278
282 280 279 280 279 279 279 279 279 274 274 273 273 273 272 272 273 273 273 274 274 274 274 274 274 273 273 273 272 272 272 271 271 271 271 271 271 272 274 274 275 276 277
279 279 280 279 279 279 278 278 278 278 278 277 274 273 272 273 273 272 272 274 274 274 273 273 273 272 272 272 271 271 271 271 270 270 270 270 270 271 272 273 273 274 275
279 279 279 278 278 277 278 278 277 277 277 277 276 273 272 273 273 273 272 272 272 272 271 271 271 271 271 270 270 270 270 270 270 269 269 269 269 269 271 271 272 272 274
277 277 278 278 278 277 277 276 276 276 276 275 275 271 270 273 273 272 271 271 270 270 270 269 269 269 269 268 268 268 268 269 269 268 268 268 268 269 270 269 270 271 272
277 276 276 277 276 276 275 275 274 274 274 274 273 269 268 271 271 270 270 269 268 268 268 267 267 268 267 266 266 266 267 267 267 266 266 267 267 268 268 268 269 269 270
278 277 276 275 275 274 274 273 273 273 272 272 272 271 268 270 269 269 268 267 266 266 266 265 265 265 265 264 264 264 265 265 265 264 265 265 266 267 267 268 268 268 269
276 275 275 274 273 272 272 272 271 271 271 271 271 270 269 268 268 267 266 265 264 264 264 263 263 263 262 261 261 263 263 262 261 262 263 264 265 266 267 267 267 267 268
275 275 274 273 272 272 272 271 270 268 269 270 269 269 268 267 267 266 265 264 262 262 262 261 262 261 260 260 260 261 260 259 259 260 262 263 264 265 266 266 266 266 267
274 274 273 272 272 271 271 270 270 269 269 268 268 267 267 266 266 264 264 262 261 260 261 261 260 260 260 259 260 258 258 258 258 259 260 262 264 265 265 265 265 266 266
273 272 272 271 271 270 270 270 269 268 267 267 267 266 265 265 264 262 262 261 259 259 260 259 259 259 259 259 259 257 257 257 257 259 260 262 264 265 265 264 264 265 266

GFSGL_925_thetae_135.txt.gz
Theta_e
293 292 292 292 291 290 290 289 289 289 289 288 285 285 286 287 288 289 289 288 288 288 286 285 286 287 288 288 288 288 289 290 294 293 296 298 297 296 299 303 308 314 319
293 293 292 291 290 290 289 288 288 288 287 285 284 283 284 286 287 287 287 286 286 286 285 283 283 284 286 287 287 287 287 289 290 292 294 292 291 290 291 293 297 300 309
293 292 290 289 289 289 288 287 286 286 286 284 282 281 282 284 285 285 284 284 283 283 283 281 281 282 284 286 286 285 286 287 288 290 289 289 288 287 288 289 291 295 300
292 290 289 289 288 287 287 286 285 285 284 281 280 280 280 282 284 285 284 282 279 280 280 279 279 280 282 283 284 284 284 285 286 287 287 287 287 286 287 287 288 289 294
291 289 288 287 287 286 285 284 283 283 282 281 279 278 279 281 283 283 282 281 278 277 277 277 278 279 280 281 281 282 283 283 284 285 284 284 284 284 285 286 287 287 291
289 287 286 285 285 284 284 283 282 280 280 280 278 278 278 280 282 283 281 280 278 276 276 276 277 278 276 278 279 279 280 282 282 283 283 283 283 283 283 284 285 286 289
287 286 285 284 284 283 282 281 280 279 278 278 277 278 278 278 280 281 281 278 277 277 276 276 277 277 276 275 276 277 277 279 280 280 280 280 280 281 281 282 283 284 285
286 285 284 283 282 282 282 281 280 279 279 278 277 277 278 278 278 279 278 277 275 275 276 276 276 277 277 275 275 275 275 276 278 278 278 277 278 279 279 280 280 282 284
284 283 283 282 281 281 281 281 281 280 279 278 277 276 277 278 277 276 276 276 275 275 276 277 276 277 277 275 274 273 273 274 275 276 275 276 275 277 278 278 278 280 281
283 282 282 281 281 281 281 281 281 281 279 277 276 275 275 277 277 277 275 276 275 275 275 276 276 276 276 276 273 273 272 273 273 273 272 273 273 274 275 276 276 278 279
283 282 281 281 281 281 281 281 282 282 280 277 275 274 274 275 276 276 276 275 276 275 275 275 276 275 276 275 273 273 272 272 272 271 271 271 271 272 273 274 274 276 276
283 282 282 282 282 281 282 282 281 281 279 277 275 273 273 274 275 275 276 276 276 275 275 275 275 274 274 274 273 272 271 271 271 270 270 270 270 270 272 272 272 273 274
282 282 282 282 282 281 281 280 280 280 277 276 275 273 273 274 274 274 275 275 275 275 275 274 274 273 272 272 272 271 270 270 270 269 269 269 269 270 271 271 271 272 272
281 281 282 281 280 279 279 278 278 277 277 275 274 273 273 274 274 275 275 275 275 274 274 273 272 272 271 271 270 270 270 270 269 269 269 268 268 269 270 269 269 270 270
282 282 281 280 279 277 275 275 275 275 275 275 273 273 273 274 274 275 276 275 274 273 272 271 271 270 270 269 269 269 269 269 269 268 268 268 267 268 269 268 268 269 269
281 281 280 279 278 276 276 275 275 275 275 274 274 273 274 274 274 274 275 274 273 272 271 270 270 269 269 268 268 268 268 267 268 267 267 267 266 267 267 268 268 268 268
282 281 281 279 276 276 276 275 275 275 275 275 274 274 274 274 274 274 273 272 271 270 269 269 269 268 268 267 266 266 266 266 266 266 265 265 265 265 266 267 267 267 267
282 281 280 280 279 278 278 278 276 275 274 274 273 273 273 274 274 272 271 270 269 269 268 268 267 267 266 265 264 264 264 264 264 263 263 263 263 264 265 266 266 266 266
281 280 280 279 279 278 278 278 278 277 274 273 272 272 273 273 272 270 269 268 268 267 267 266 266 265 264 263 263 263 263 263 262 261 261 261 261 262 263 264 265 266 266
280 280 279 279 278 278 278 277 277 276 275 273 272 271 272 271 270 269 268 267 266 265 265 264 264 263 263 262 261 262 262 261 260 259 259 259 260 261 262 263 264 265 265
279 278 278 278 278 277 276 276 275 274 273 272 271 270 270 270 269 268 267 266 265 264 264 263 263 262 262 261 261 261 260 260 259 259 259 259 260 260 261 262 263 265 264
278 278 278 277 276 275 275 274 274 273 272 271 270 270 270 269 268 267 266 265 264 263 263 262 262 261 261 260 260 260 259 259 258 258 258 259 260 261 261 262 262 264 263
277 277 276 275 275 274 274 273 272 272 272 271 270 269 269 268 267 266 265 264 263 262 262 261 261 260 260 260 259 259 259 258 258 258 258 259 260 260 261 261 263 263 263
277 276 275 274 273 273 272 272 271 271 271 270 270 269 268 267 266 265 264 264 263 262 261 260 260 260 259 259 259 259 259 258 258 259 259 260 261 262 262 262 263 263 263
276 275 274 273 273 273 272 271 271 270 270 269 269 268 267 266 266 265 264 263 262 261 260 260 259 259 259 259 258 259 259 258 259 259 260 261 262 262 263 263 264 263 263
275 274 274 272 272 272 271 271 270 270 269 268 268 267 266 265 265 264 263 262 262 261 261 260 259 258 258 258 258 258 259 259 259 260 260 261 261 262 263 263 263 263 263

GFSGL_925_thetae_138.txt.gz
Theta_e
293 292 292 291 290 289 289 289 288 287 286 285 283 286 286 287 287 286 286 285 285 283 282 283 283 285 286 287 286 287 288 290 292 292 293 290 290 288 290 292 296 297 300
293 292 291 290 289 288 288 287 287 285 284 283 282 284 285 285 285 284 283 282 282 282 280 281 281 283 284 285 285 285 285 287 289 291 290 288 287 286 288 288 290 291 294
292 290 289 289 288 287 286 286 285 284 283 281 280 283 284 284 284 283 279 280 280 279 279 279 279 281 281 283 283 283 283 285 286 286 286 285 284 284 286 286 287 288 291
290 289 289 288 287 286 285 285 284 283 281 279 280 282 283 283 283 281 278 277 277 277 278 279 278 279 280 281 281 281 282 283 284 284 283 284 282 282 283 284 285 285 289
290 288 287 286 286 285 284 283 282 282 279 278 279 281 282 283 282 280 278 277 277 277 277 278 278 277 279 279 279 279 280 281 281 282 281 281 281 281 280 282 283 283 288
288 287 286 285 285 284 282 281 280 280 278 278 278 279 280 281 281 280 278 277 277 276 277 277 278 276 276 277 277 277 279 279 278 278 278 279 279 279 279 280 281 282 285
287 286 285 284 283 282 281 279 278 277 277 278 278 278 279 279 280 279 276 276 277 276 276 277 277 276 275 275 275 275 275 277 276 275 276 276 277 277 277 278 279 280 280
286 285 284 283 282 281 280 279 278 277 276 277 278 278 278 278 278 277 275 276 276 277 276 276 276 276 275 273 273 273 273 273 274 274 274 274 275 275 274 276 276 278 280
285 284 283 282 282 282 280 279 278 277 276 276 277 277 277 277 277 276 275 275 276 276 276 277 276 276 275 273 272 271 271 271 271 271 272 272 272 273 273 273 274 276 276
284 283 283 281 281 281 281 280 278 277 275 275 275 276 277 277 277 276 275 275 275 275 275 275 276 276 275 274 271 271 270 270 270 270 270 270 271 270 271 271 271 273 274
283 282 281 281 281 281 281 281 278 276 275 274 274 275 275 276 277 277 276 275 275 275 275 274 274 274 275 273 272 271 270 269 269 268 268 268 269 269 269 269 270 270 271
281 281 281 281 281 281 281 281 279 277 275 273 274 274 274 275 276 276 276 276 274 274 274 274 273 273 272 273 271 271 269 268 268 268 267 267 267 268 269 268 269 269 270
282 281 281 281 281 282 281 281 279 277 275 273 274 274 274 275 275 275 276 275 274 273 273 273 272 270 270 269 270 269 268 268 267 267 267 266 267 267 268 267 268 268 268
282 282 281 281 281 280 280 279 278 276 275 273 273 274 274 274 275 275 274 274 273 272 271 270 270 268 268 268 268 267 267 267 267 266 266 266 266 266 266 267 267 267 267
282 281 281 279 279 278 278 277 277 276 275 273 273 274 274 274 275 276 274 273 271 270 270 269 268 267 267 266 266 266 266 266 265 265 264 264 264 264 265 266 266 266 266
281 280 280 278 275 275 275 275 275 275 274 274 273 274 274 275 275 275 274 273 271 270 269 268 267 266 265 265 264 264 264 264 263 263 263 263 263 263 264 265 266 266 265
281 280 279 278 276 276 275 275 275 275 275 274 274 275 274 274 274 273 272 271 270 269 267 266 266 265 264 263 263 263 263 262 262 261 261 261 262 262 263 264 265 265 265
281 280 279 278 277 276 276 275 275 275 275 274 273 274 274 274 272 271 270 269 268 267 266 265 265 264 263 262 262 262 262 261 261 261 261 261 261 260 261 262 263 264 264
281 281 280 278 277 278 277 276 275 274 274 273 272 273 274 273 271 269 268 268 266 265 265 264 264 263 262 262 262 262 261 261 260 260 260 260 260 260 261 261 262 263 264
281 280 280 279 279 278 278 277 276 274 273 273 271 272 271 271 270 268 267 266 266 265 264 263 263 262 262 261 261 261 260 260 260 260 260 260 260 260 260 260 261 262 264
280 280 279 279 278 278 277 277 276 275 273 271 271 271 270 270 268 267 266 265 264 264 263 263 262 262 261 261 260 260 260 259 259 259 259 260 260 261 261 261 262 262 263
280 279 278 278 277 277 276 276 275 274 272 271 270 270 270 269 268 267 266 265 264 263 263 262 262 261 260 260 260 260 259 259 259 259 259 260 261 261 261 262 262 262 263
279 278 278 277 276 275 275 274 274 273 272 271 270 269 269 268 267 266 265 264 264 263 262 262 261 260 260 259 259 259 259 258 258 258 259 260 261 261 261 261 262 261 262
278 278 277 276 275 274 274 273 273 272 272 271 270 269 268 267 267 266 265 264 263 262 261 261 260 260 259 259 259 259 258 258 258 258 259 260 261 261 261 262 262 262 262
277 277 276 275 274 273 273 272 272 271 271 270 269 269 268 267 266 265 264 263 263 262 261 261 260 260 259 259 259 259 258 258 258 259 259 260 260 261 261 261 262 262 262
277 276 275 274 273 273 272 272 270 270 270 269 269 268 267 266 266 265 264 263 262 261 261 260 260 260 260 259 259 259 259 258 258 259 259 259 260 260 260 261 262 262 262

GFSGL_925_thetae_141.txt.gz
Theta_e
292 292 291 290 289 289 289 288 287 286 285 283 286 286 286 285 285 284 283 283 282 281 281 282 282 284 284 285 285 285 286 287 290 291 290 287 286 285 286 288 289 290 293
292 292 291 290 289 287 287 286 285 285 283 282 284 285 285 284 283 281 281 281 280 279 280 280 280 281 282 282 282 283 284 285 286 287 286 285 283 283 284 285 286 288 291
292 291 290 289 288 286 286 285 284 283 281 281 283 284 284 283 281 278 279 278 278 278 279 278 279 280 280 281 281 281 282 284 284 283 283 282 280 281 281 283 284 286 289
291 289 288 287 287 286 285 284 283 282 280 281 282 282 283 282 280 277 277 277 278 278 279 278 278 279 279 280 279 280 280 280 280 280 280 280 279 279 279 280 281 283 286
289 288 287 286 286 284 284 283 282 280 279 280 281 281 282 281 279 277 277 277 277 277 278 278 277 278 278 279 278 278 277 277 277 277 278 278 277 277 277 278 279 280 285
289 287 286 285 284 283 282 281 281 278 278 280 280 280 281 280 279 278 277 276 276 276 277 277 276 275 275 276 276 276 277 275 275 275 275 275 275 275 275 276 277 278 282
288 286 285 284 283 281 280 279 278 278 278 278 279 279 279 279 277 277 277 276 276 276 276 276 275 274 274 274 273 272 273 274 274 273 273 273 274 273 273 274 275 276 278
286 286 285 284 282 280 278 277 277 277 278 278 277 278 278 278 277 276 276 276 276 276 276 276 275 274 273 272 272 270 270 271 272 272 272 271 272 272 271 272 273 274 278
285 285 284 283 281 279 278 277 276 277 277 277 277 277 277 277 276 276 275 275 275 276 276 276 275 274 273 272 270 270 269 269 269 270 270 270 269 271 270 270 270 271 273
285 284 283 282 281 279 278 277 276 276 276 276 277 277 277 277 276 275 275 275 274 274 274 275 276 275 274 272 270 269 268 268 268 268 268 269 268 268 268 268 268 269 270
285 283 282 282 281 280 278 277 276 275 275 275 276 276 277 277 277 276 275 274 274 273 273 273 273 274 273 272 270 269 268 267 267 267 267 267 267 267 267 267 268 269 268
284 283 281 281 281 280 279 277 275 275 274 274 275 275 276 276 276 277 276 274 274 273 272 271 271 271 271 271 270 269 267 267 266 266 265 265 265 266 266 266 266 267 267
282 281 280 280 281 281 279 277 275 274 274 274 274 274 275 275 275 276 275 273 273 272 272 270 269 268 268 268 268 267 266 266 265 265 264 264 265 265 265 266 266 266 266
281 281 281 281 281 281 280 278 277 274 274 274 274 274 275 275 274 274 274 272 271 271 270 269 268 267 267 267 267 266 265 264 264 263 264 264 265 265 265 265 265 265 265
281 281 281 281 281 280 279 279 278 276 275 274 274 274 275 275 274 274 273 271 270 269 269 268 268 267 266 266 265 264 264 263 263 263 263 263 264 263 264 264 264 264 264
281 280 279 279 278 278 278 277 276 275 274 274 274 274 275 276 276 274 273 272 270 269 268 267 265 264 264 264 264 263 263 262 262 262 262 261 262 262 262 263 263 263 264
281 280 278 277 276 275 275 275 275 275 275 274 274 274 274 274 274 274 272 271 268 268 267 265 264 264 263 263 263 262 261 261 261 261 261 261 262 262 262 262 262 262 263
280 280 278 276 275 275 275 275 275 275 275 274 274 275 275 273 272 272 270 269 268 267 266 265 264 263 263 262 262 261 261 261 261 261 261 261 261 261 262 261 261 261 262
280 280 279 278 276 276 276 275 275 275 274 273 273 274 274 272 271 269 268 268 267 266 265 264 264 263 262 262 261 261 261 261 261 261 261 261 261 261 261 261 261 262 262
281 281 280 278 277 276 276 275 275 274 274 273 273 274 272 271 270 268 267 266 266 265 265 264 263 262 262 262 262 261 261 261 261 261 261 261 261 261 261 261 261 260 261
281 280 279 278 277 277 276 275 275 274 273 272 272 272 272 271 269 268 266 265 265 264 264 263 262 262 262 262 261 261 261 260 260 260 260 261 261 261 261 262 262 262 261
281 280 279 279 278 278 277 277 276 275 274 272 271 270 270 270 269 267 266 265 264 263 263 263 262 262 262 261 261 260 260 260 260 260 260 260 261 261 261 262 262 262 261
280 279 278 278 278 277 277 276 276 275 274 272 271 270 269 269 268 267 266 265 264 263 262 262 262 262 261 261 261 260 259 259 259 259 259 260 260 261 261 261 261 261 261
279 279 278 278 277 277 276 275 275 274 273 271 271 270 269 268 268 267 265 264 264 263 262 262 262 261 261 261 260 260 259 259 259 259 259 259 260 260 260 260 261 260 261
279 278 278 277 276 275 275 274 273 273 272 271 270 270 269 268 267 266 265 264 263 263 262 262 262 261 261 260 260 259 259 259 258 258 258 259 259 259 259 260 260 261 261
278 278 277 276 275 274 274 273 272 272 271 271 270 269 269 268 267 266 265 264 263 263 262 262 261 261 260 260 260 259 259 259 258 258 258 258 258 259 259 259 260 260 261

GFSGL_925_thetae_144.txt.gz
Theta_e
292 291 290 290 289 289 288 287 287 286 284 285 286 286 286 284 283 283 282 281 280 280 280 281 281 282 282 283 283 284 285 286 288 289 286 284 282 282 284 285 287 290 288
292 291 289 289 289 288 287 286 285 284 282 284 285 285 284 283 281 280 280 279 279 279 278 279 280 281 281 281 281 282 282 283 284 285 284 281 280 279 280 282 284 287 286
292 291 289 288 287 287 286 285 284 282 281 283 284 283 283 281 278 278 278 278 278 279 278 279 279 279 280 280 280 280 279 280 280 281 280 279 278 277 278 280 282 285 284
292 291 289 287 287 286 285 284 283 281 281 283 283 282 281 279 278 277 277 277 278 278 277 278 278 279 279 279 278 278 278 277 278 278 278 277 276 276 277 277 278 281 283
291 290 288 286 286 285 284 283 281 280 281 281 281 282 281 279 278 277 277 277 277 278 277 276 277 278 277 278 277 276 276 276 276 276 276 276 275 274 274 275 276 278 282
289 288 287 285 285 284 283 281 280 279 280 281 280 280 279 278 278 277 277 276 276 277 277 275 275 275 275 274 275 275 275 274 274 274 274 274 274 272 272 273 274 277 281
288 287 286 285 284 282 281 280 279 278 279 280 280 279 278 277 277 277 276 276 276 275 275 274 274 274 273 272 271 271 272 273 273 272 272 272 272 271 271 272 272 274 276
287 286 285 284 283 280 279 278 278 278 278 278 278 278 277 277 277 276 276 276 276 275 275 274 273 272 272 271 270 269 270 270 271 271 270 270 271 270 269 270 271 273 275
286 285 284 283 281 279 277 277 277 277 277 277 277 277 277 276 276 275 275 276 276 275 275 275 274 273 272 270 269 269 268 268 268 268 269 268 268 269 268 268 269 271 271
285 285 284 283 281 278 277 277 277 277 277 277 276 277 276 276 276 275 275 274 274 274 274 275 275 274 273 270 269 268 268 267 268 268 268 268 268 267 267 267 267 268 268
285 284 283 282 280 279 277 276 276 276 276 276 277 277 276 276 276 275 274 274 273 272 272 272 273 273 272 271 269 268 267 267 267 266 266 267 267 267 266 266 267 266 266
285 283 282 281 279 277 277 276 276 275 275 276 276 276 276 277 277 276 275 273 272 271 271 270 270 271 271 269 268 267 266 267 266 266 265 265 265 265 265 265 266 266 266
283 282 281 280 278 278 277 275 274 274 274 274 275 275 275 276 277 276 274 273 272 271 270 269 268 267 268 267 266 266 266 266 265 265 264 264 264 264 265 265 265 265 265
282 281 280 280 278 278 277 276 275 274 274 274 274 275 274 275 275 274 273 272 271 270 268 267 267 267 266 266 266 265 265 264 264 264 264 264 265 265 264 264 264 264 264
281 281 280 280 279 278 277 277 277 276 275 274 274 275 275 274 274 273 272 270 270 269 268 268 268 267 267 266 265 265 265 265 264 264 264 264 264 264 264 264 263 263 263
281 280 280 279 279 278 277 276 277 276 274 274 274 275 275 274 274 273 272 271 269 269 268 267 266 265 265 265 264 263 263 263 263 263 263 263 263 263 263 263 262 262 262
281 280 279 278 278 277 277 276 275 275 275 275 275 275 275 276 275 274 272 270 268 268 267 266 265 264 264 264 263 263 262 262 262 262 262 262 262 262 262 262 262 262 262
281 279 279 278 278 277 277 276 275 275 275 275 275 275 275 274 274 273 271 269 268 266 266 265 264 264 264 263 263 262 262 262 262 261 261 261 262 262 262 261 261 261 261
280 278 279 278 278 277 276 275 275 275 275 275 274 274 274 273 272 270 269 268 267 266 265 265 264 264 263 263 262 262 262 262 261 262 261 261 262 262 262 261 261 262 261
280 279 279 278 276 275 275 275 275 274 274 274 273 274 273 272 271 270 268 267 266 266 265 265 264 264 263 263 262 262 261 261 261 261 261 261 261 261 261 261 261 260 261
280 280 280 277 276 275 276 275 275 274 274 273 273 274 273 272 271 269 268 266 266 265 265 264 264 263 263 262 262 261 261 261 261 261 261 261 261 261 261 261 261 261 260
281 279 278 277 276 276 276 275 275 274 274 273 272 272 272 271 270 269 267 266 265 264 264 264 263 263 262 262 262 261 261 261 261 261 261 260 260 261 261 261 261 261 261
281 279 278 277 277 276 276 276 275 275 274 274 272 271 271 270 269 268 267 266 265 265 264 263 263 262 262 262 261 261 261 261 260 260 260 260 260 260 260 260 260 260 259
280 279 278 278 277 277 277 277 276 275 275 273 272 271 270 270 269 268 267 266 265 264 263 263 262 262 262 261 261 261 260 260 260 259 259 259 259 259 259 259 259 259 260
279 279 279 278 278 277 277 276 275 275 274 273 272 271 270 269 268 267 267 266 265 264 263 262 262 261 261 261 261 261 260 260 260 259 258 258 258 258 258 258 259 259 260
279 279 278 278 277 277 276 275 274 274 273 272 271 271 270 269 268 267 266 265 265 264 263 262 262 261 261 261 261 261 261 260 260 258 258 258 258 258 258 258 258 259 259

GFSGL_925_thetae_147.txt.gz
Theta_e
292 292 291 290 289 288 287 286 285 285 285 286 286 285 283 283 283 283 282 282 282 282 282 283 283 283 284 284 284 285 285 286 289 289 286 282 281 280 282 284 287 286 286
292 291 290 289 288 287 286 285 284 284 284 285 285 283 282 281 281 281 281 281 281 281 281 282 282 282 282 282 282 282 282 283 283 284 283 280 280 278 280 282 284 284 282
291 290 289 289 287 286 284 284 283 283 284 284 284 283 281 280 280 280 280 280 280 280 280 281 281 281 281 281 280 280 280 280 280 281 280 279 278 277 279 280 282 284 279
291 289 289 287 286 285 283 283 282 282 283 284 283 281 280 280 279 279 279 280 280 279 279 279 279 279 279 279 278 278 278 279 279 279 279 278 277 276 277 278 282 282 279
291 289 288 286 285 284 283 282 281 282 282 283 283 281 281 280 279 279 279 279 279 278 277 277 277 277 276 277 277 277 276 277 277 277 277 276 275 275 275 277 279 283 280
290 288 287 285 284 283 282 281 280 281 281 282 282 281 280 279 278 277 278 278 278 278 277 276 276 275 274 274 274 275 275 274 274 275 275 275 274 273 274 275 278 282 281
288 287 285 285 284 283 281 280 280 280 281 281 280 279 279 279 278 277 277 277 277 276 276 275 275 274 273 272 271 271 273 273 272 272 273 273 273 272 272 274 275 278 276
287 287 285 284 283 281 280 279 278 279 279 279 279 279 279 278 277 277 276 277 277 276 275 275 274 273 272 272 271 270 269 270 271 271 271 270 271 271 270 272 273 276 276
287 285 284 283 282 280 279 278 278 278 278 278 278 278 278 277 277 276 276 276 275 275 276 275 274 273 271 270 270 269 269 268 268 268 268 268 268 269 268 271 272 274 274
286 285 284 283 282 280 278 277 277 277 277 277 276 276 277 277 276 275 276 276 276 275 275 275 274 273 272 270 269 269 268 267 268 268 268 269 268 267 267 267 269 271 271
286 285 283 282 280 278 277 277 277 277 276 276 276 276 276 276 276 275 274 275 275 274 274 274 273 272 271 270 269 268 267 267 268 267 267 267 267 267 267 267 267 268 269
285 283 282 280 278 277 277 276 276 276 276 275 276 276 276 277 276 274 273 273 272 272 272 272 272 271 270 269 268 267 268 268 266 266 266 266 266 266 266 266 266 266 266
284 282 280 279 278 277 276 275 275 275 276 276 277 277 276 276 277 275 274 272 271 271 271 270 269 268 268 267 267 267 267 266 266 266 266 265 265 265 266 267 267 266 267
283 282 281 280 278 277 276 276 275 275 276 277 276 276 276 276 275 274 273 271 270 270 268 268 267 267 267 266 266 266 265 265 265 265 265 265 265 266 266 266 267 267 268
283 282 281 280 279 277 277 276 276 276 276 276 276 275 275 275 274 273 272 270 269 268 267 266 266 266 266 266 265 265 265 265 265 265 265 265 265 266 266 266 266 267 268
283 282 281 280 280 279 278 276 275 276 275 275 275 275 275 274 273 271 271 270 269 268 267 267 267 267 267 267 266 265 265 264 264 264 264 264 265 265 266 266 266 266 267
283 282 281 281 280 279 278 278 277 276 275 275 275 275 275 275 274 274 272 270 268 268 268 267 267 266 266 266 265 265 264 263 263 263 263 263 263 265 265 266 266 266 266
282 281 280 280 279 278 278 278 277 276 276 275 275 276 276 276 275 273 271 269 268 267 267 267 266 266 266 265 264 264 263 263 262 263 262 262 262 264 265 265 265 264 265
280 280 279 279 279 278 277 277 277 276 276 275 275 276 275 275 274 273 270 269 268 268 267 266 265 265 265 264 263 263 263 262 262 261 262 261 261 262 263 263 264 263 264
280 279 278 278 277 277 277 277 276 275 275 275 275 275 274 272 271 270 269 268 268 267 267 266 265 264 264 263 263 262 262 262 262 262 261 261 261 262 263 263 263 263 264
279 278 278 278 277 277 277 276 275 275 275 275 275 273 273 273 271 270 269 268 267 266 266 265 264 263 263 262 262 262 262 261 261 260 260 260 260 261 261 262 262 263 263
280 278 278 277 277 276 276 276 275 275 274 274 273 273 273 272 271 270 269 267 266 265 265 264 264 263 262 262 262 262 261 261 260 259 259 259 260 261 261 261 262 262 263
279 278 278 277 277 276 276 276 276 275 275 274 272 272 272 271 271 270 269 268 266 265 265 264 263 263 263 263 262 261 261 260 260 260 260 259 259 260 260 261 261 261 262
280 279 278 278 277 277 277 276 276 275 275 273 273 272 271 271 270 269 268 267 266 265 265 264 263 263 262 262 262 261 261 261 260 259 260 259 258 259 259 259 260 260 260
280 279 278 278 277 277 276 276 275 274 274 274 272 272 271 271 270 269 268 267 266 265 264 264 263 262 262 262 261 261 261 261 260 260 260 259 257 257 258 258 258 259 260
280 279 278 277 277 276 276 275 275 274 274 273 273 272 272 271 270 269 268 267 266 265 264 263 263 262 262 262 261 261 261 261 260 260 260 258 257 257 258 258 258 258 259

GFSGL_925_thetae_150.txt.gz
Theta_e
298 298 297 296 295 294 292 291 290 290 291 291 290 288 288 288 287 287 287 286 286 286 286 286 286 287 287 286 286 286 287 287 288 289 289 286 284 283 285 284 287 284 286
298 297 296 295 294 292 290 289 289 289 290 290 288 287 286 286 285 285 285 285 285 285 285 286 285 286 286 285 285 285 285 286 285 287 286 284 282 281 283 284 285 283 282
297 296 294 293 292 290 289 288 288 288 289 288 287 286 285 284 284 284 285 285 284 284 284 284 284 284 284 284 283 283 283 284 284 284 284 282 281 279 281 283 285 284 280
295 293 292 291 290 289 287 287 287 288 288 287 286 284 284 283 283 283 284 284 283 282 282 282 281 281 281 282 282 281 281 282 282 283 282 281 279 279 280 281 285 285 279
293 292 292 290 289 288 287 287 286 287 287 286 285 284 284 283 283 283 283 284 282 281 281 280 279 277 276 277 279 279 280 280 280 281 281 280 278 278 278 280 284 286 282
293 292 290 289 288 287 286 285 285 286 286 285 284 284 283 280 279 281 282 282 281 281 280 280 278 277 275 274 275 275 275 277 278 278 278 278 277 276 277 278 282 282 283
292 290 288 288 287 286 284 284 284 285 285 284 283 283 282 280 279 279 281 281 281 279 279 279 277 276 276 275 273 274 274 274 274 276 275 274 274 273 275 277 279 281 278
290 288 287 286 285 284 283 283 283 284 283 282 282 282 281 279 278 279 280 280 279 278 278 277 276 275 274 275 275 273 273 272 272 272 272 272 272 272 273 275 277 279 279
288 287 286 285 284 283 282 282 282 282 282 281 281 281 280 279 278 278 280 279 278 278 277 276 275 274 272 272 273 273 272 271 270 270 270 270 270 270 271 274 276 277 278
288 287 286 284 283 281 281 281 281 281 281 281 280 280 279 278 277 278 279 279 279 278 277 276 274 273 272 271 273 273 271 270 271 271 271 271 270 270 270 271 273 275 275
287 286 285 283 281 280 280 280 280 281 280 280 279 279 279 278 276 276 277 279 279 278 278 277 274 272 271 271 270 270 270 270 271 272 272 271 271 271 270 270 270 270 272
286 285 283 281 280 279 279 279 280 280 279 279 279 279 279 278 276 275 275 276 276 277 277 275 273 271 270 270 269 268 268 271 272 272 272 271 271 271 271 270 269 269 269
285 283 282 280 280 279 279 279 280 279 280 280 280 279 279 278 276 275 274 273 273 275 274 272 270 269 269 269 268 268 270 271 272 272 271 271 271 270 271 271 271 271 272
284 282 281 281 280 280 280 280 280 280 280 280 280 280 279 279 278 276 274 273 272 272 270 269 269 268 269 269 270 270 269 269 271 271 271 271 271 271 271 271 272 272 273
284 283 282 281 281 280 280 280 280 280 280 281 280 280 280 279 278 276 275 274 273 272 270 270 271 271 272 271 270 270 270 271 271 270 271 271 271 271 271 271 271 272 273
285 283 282 281 281 281 280 279 278 278 277 278 278 279 278 278 275 274 273 272 270 269 271 272 272 273 273 272 272 271 270 270 270 270 270 270 270 270 271 271 271 271 272
285 284 283 283 282 281 281 280 278 276 276 276 276 276 276 275 273 273 272 270 269 269 273 273 273 273 272 272 271 270 270 268 267 268 269 268 269 270 270 270 270 270 271
285 284 284 283 283 282 281 281 279 278 277 276 276 276 276 275 275 274 272 271 270 270 272 272 272 272 271 271 269 269 269 268 268 268 268 267 267 269 269 269 269 268 269
284 284 284 283 282 282 281 281 280 279 278 278 277 277 276 276 275 273 271 273 273 272 271 271 271 271 270 269 268 268 267 267 266 267 267 267 267 268 268 268 268 267 267
283 283 283 282 281 281 280 280 280 279 278 277 278 278 277 275 275 274 273 273 272 272 271 270 269 269 269 269 268 267 268 267 267 267 266 266 266 266 267 267 267 267 268
283 282 282 281 281 281 281 280 280 279 278 278 278 278 276 275 275 274 272 272 272 271 271 270 269 268 268 268 267 267 266 267 265 265 266 265 265 266 266 266 266 267 267
282 281 281 281 281 280 280 280 279 278 278 278 277 276 275 275 275 274 273 271 270 270 269 269 269 268 267 267 267 267 266 265 265 265 265 263 264 265 265 266 266 266 266
282 281 281 281 280 280 279 278 278 278 278 277 277 275 274 275 274 273 272 271 269 268 268 268 268 267 266 265 265 265 265 265 264 263 262 263 264 265 264 265 265 265 265
282 282 281 281 280 279 279 279 279 278 278 277 276 275 274 274 274 273 272 270 268 267 266 266 266 266 265 264 263 263 263 262 262 262 261 261 262 263 263 264 264 264 263
282 282 282 281 280 280 280 280 279 279 278 278 277 276 275 274 273 272 270 268 267 266 265 265 264 264 263 263 263 262 262 262 262 261 260 260 261 261 261 262 262 262 263
283 282 282 281 281 281 280 280 279 278 278 277 276 276 275 273 273 271 269 267 266 266 265 264 264 263 263 262 262 262 262 262 261 262 261 260 261 262 262 262 262 262 262